Wetterdaten: Mittwoch, 01.01.2014
Datum Zeit Temp. Aussen +5cm Feuchte Auss Luftdruck Regen Sonnenschein Regendauer UV Solar Windben
01.01.2014 00:00 6,0 C 4,4 C 75 % 1008,8 hPa 0,0 l/m 0 min 0 min 0,0 UV-I 0 W/m 10,3 km/h (2 Bft)
01.01.2014 00:02 6,0 C 4,4 C 75 % 1008,7 hPa 0,0 l/m 0 min 0 min 0,0 UV-I 0 W/m 0,0 km/h (0 Bft)
01.01.2014 00:04 6,0 C 4,4 C 74 % 1008,7 hPa 0,0 l/m 0 min 0 min 0,0 UV-I 0 W/m 15,4 km/h (3 Bft)
01.01.2014 00:06 6,0 C 4,4 C 75 % 1008,8 hPa 0,0 l/m 0 min 0 min 0,0 UV-I 0 W/m 10,3 km/h (2 Bft)
01.01.2014 00:08 6,1 C 4,4 C 75 % 1008,8 hPa 0,0 l/m 0 min 0 min 0,0 UV-I 0 W/m 12,9 km/h (3 Bft)
01.01.2014 00:10 6,1 C 4,4 C 75 % 1008,8 hPa 0,0 l/m 0 min 0 min 0,0 UV-I 0 W/m 10,3 km/h (2 Bft)
01.01.2014 00:12 6,1 C 4,4 C 75 % 1008,8 hPa 0,0 l/m 0 min 0 min 0,0 UV-I 0 W/m 10,3 km/h (2 Bft)
01.01.2014 00:14 6,1 C 4,4 C 75 % 1008,9 hPa 0,0 l/m 0 min 0 min 0,0 UV-I 0 W/m 7,7 km/h (2 Bft)
01.01.2014 00:16 6,1 C 4,4 C 75 % 1008,9 hPa 0,0 l/m 0 min 0 min 0,0 UV-I 0 W/m 0,0 km/h (0 Bft)
01.01.2014 00:18 6,1 C 4,4 C 75 % 1008,8 hPa 0,0 l/m 0 min 0 min 0,0 UV-I 0 W/m 7,7 km/h (2 Bft)
01.01.2014 00:20 6,1 C 4,4 C 75 % 1008,8 hPa 0,0 l/m 0 min 0 min 0,0 UV-I 0 W/m 10,3 km/h (2 Bft)
01.01.2014 00:22 6,1 C 4,4 C 75 % 1008,9 hPa 0,0 l/m 0 min 0 min 0,0 UV-I 0 W/m 7,7 km/h (2 Bft)
01.01.2014 00:24 6,1 C 4,4 C 75 % 1009,0 hPa 0,0 l/m 0 min 0 min 0,0 UV-I 0 W/m 10,3 km/h (2 Bft)
01.01.2014 00:26 6,1 C 4,4 C 75 % 1008,9 hPa 0,0 l/m 0 min 0 min 0,0 UV-I 0 W/m 12,9 km/h (3 Bft)
01.01.2014 00:28 6,1 C 4,4 C 75 % 1008,9 hPa 0,0 l/m 0 min 0 min 0,0 UV-I 0 W/m 10,3 km/h (2 Bft)
01.01.2014 00:30 6,1 C 4,4 C 75 % 1009,0 hPa 0,0 l/m 0 min 0 min 0,0 UV-I 0 W/m 2,6 km/h (1 Bft)
01.01.2014 00:32 6,1 C 4,4 C 75 % 1008,9 hPa 0,0 l/m 0 min 0 min 0,0 UV-I 0 W/m 0,0 km/h (0 Bft)
01.01.2014 00:34 6,1 C 4,4 C 75 % 1008,9 hPa 0,0 l/m 0 min 0 min 0,0 UV-I 0 W/m 12,9 km/h (3 Bft)
01.01.2014 00:36 6,1 C 4,4 C 76 % 1008,8 hPa 0,0 l/m 0 min 0 min 0,0 UV-I 0 W/m 0,0 km/h (0 Bft)
01.01.2014 00:38 6,1 C 4,4 C 75 % 1008,8 hPa 0,0 l/m 0 min 0 min 0,0 UV-I 0 W/m 0,0 km/h (0 Bft)
01.01.2014 00:40 6,1 C 4,4 C 76 % 1008,8 hPa 0,0 l/m 0 min 2 min 0,0 UV-I 0 W/m 0,0 km/h (0 Bft)
01.01.2014 00:42 6,1 C 4,4 C 76 % 1008,9 hPa 0,0 l/m 0 min 2 min 0,0 UV-I 0 W/m 2,6 km/h (1 Bft)
01.01.2014 00:44 6,1 C 3,9 C 77 % 1009,0 hPa 0,0 l/m 0 min 2 min 0,0 UV-I 0 W/m 7,7 km/h (2 Bft)
01.01.2014 00:46 6,1 C 3,9 C 77 % 1009,0 hPa 0,0 l/m 0 min 2 min 0,0 UV-I 0 W/m 7,7 km/h (2 Bft)
01.01.2014 00:48 6,1 C 3,3 C 78 % 1008,9 hPa 0,0 l/m 0 min 2 min 0,0 UV-I 0 W/m 2,6 km/h (1 Bft)
01.01.2014 00:50 6,0 C 3,3 C 79 % 1009,0 hPa 0,2 l/m 0 min 2 min 0,0 UV-I 0 W/m 7,7 km/h (2 Bft)
01.01.2014 00:52 6,0 C 3,3 C 79 % 1008,9 hPa 0,0 l/m 0 min 2 min 0,0 UV-I 0 W/m 0,0 km/h (0 Bft)
01.01.2014 00:54 6,0 C 3,3 C 80 % 1008,9 hPa 0,0 l/m 0 min 2 min 0,0 UV-I 0 W/m 0,0 km/h (0 Bft)
01.01.2014 00:56 6,0 C 3,3 C 80 % 1008,9 hPa 0,0 l/m 0 min 2 min 0,0 UV-I 0 W/m 2,6 km/h (1 Bft)
01.01.2014 00:58 5,9 C 3,3 C 81 % 1008,9 hPa 0,0 l/m 0 min 2 min 0,0 UV-I 0 W/m 0,0 km/h (0 Bft)
01.01.2014 01:00 5,9 C 3,3 C 82 % 1009,0 hPa 0,0 l/m 0 min 2 min 0,0 UV-I 0 W/m 0,0 km/h (0 Bft)
01.01.2014 01:02 5,9 C 2,8 C 82 % 1009,0 hPa 0,0 l/m 0 min 2 min 0,0 UV-I 0 W/m 0,0 km/h (0 Bft)
01.01.2014 01:04 5,9 C 3,3 C 82 % 1009,0 hPa 0,0 l/m 0 min 2 min 0,0 UV-I 0 W/m 0,0 km/h (0 Bft)
01.01.2014 01:06 5,8 C 3,3 C 83 % 1008,9 hPa 0,0 l/m 0 min 2 min 0,0 UV-I 0 W/m 2,6 km/h (1 Bft)
01.01.2014 01:08 5,8 C 3,3 C 83 % 1009,0 hPa 0,0 l/m 0 min 2 min 0,0 UV-I 0 W/m 7,7 km/h (2 Bft)
01.01.2014 01:10 5,8 C 3,3 C 84 % 1008,8 hPa 0,0 l/m 0 min 2 min 0,0 UV-I 0 W/m 12,9 km/h (3 Bft)
01.01.2014 01:12 5,8 C 3,3 C 85 % 1008,9 hPa 0,0 l/m 0 min 2 min 0,0 UV-I 0 W/m 0,0 km/h (0 Bft)
01.01.2014 01:14 5,8 C 3,9 C 85 % 1009,0 hPa 0,0 l/m 0 min 2 min 0,0 UV-I 0 W/m 20,6 km/h (4 Bft)
01.01.2014 01:16 5,8 C 3,9 C 86 % 1009,0 hPa 0,0 l/m 0 min 2 min 0,0 UV-I 0 W/m 12,9 km/h (3 Bft)
01.01.2014 01:18 5,8 C 3,9 C 86 % 1009,1 hPa 0,0 l/m 0 min 2 min 0,0 UV-I 0 W/m 15,4 km/h (3 Bft)
01.01.2014 01:20 5,9 C 3,9 C 87 % 1009,0 hPa 0,2 l/m 0 min 2 min 0,0 UV-I 0 W/m 18,0 km/h (3 Bft)
01.01.2014 01:22 5,9 C 3,9 C 87 % 1009,0 hPa 0,0 l/m 0 min 2 min 0,0 UV-I 0 W/m 10,3 km/h (2 Bft)
01.01.2014 01:24 5,9 C 3,9 C 88 % 1009,0 hPa 0,0 l/m 0 min 2 min 0,0 UV-I 0 W/m 7,7 km/h (2 Bft)
01.01.2014 01:26 5,9 C 3,9 C 88 % 1009,0 hPa 0,0 l/m 0 min 2 min 0,0 UV-I 0 W/m 5,1 km/h (1 Bft)
01.01.2014 01:28 5,9 C 3,9 C 88 % 1009,0 hPa 0,0 l/m 0 min 2 min 0,0 UV-I 0 W/m 15,4 km/h (3 Bft)
01.01.2014 01:30 6,0 C 3,9 C 88 % 1009,1 hPa 0,0 l/m 0 min 2 min 0,0 UV-I 0 W/m 15,4 km/h (3 Bft)
01.01.2014 01:32 6,0 C 3,9 C 88 % 1009,1 hPa 0,0 l/m 0 min 2 min 0,0 UV-I 0 W/m 10,3 km/h (2 Bft)
01.01.2014 01:34 6,0 C 3,9 C 88 % 1009,1 hPa 0,0 l/m 0 min 2 min 0,0 UV-I 0 W/m 7,7 km/h (2 Bft)
01.01.2014 01:36 6,1 C 3,9 C 88 % 1009,1 hPa 0,0 l/m 0 min 2 min 0,0 UV-I 0 W/m 15,4 km/h (3 Bft)
01.01.2014 01:38 6,1 C 3,9 C 89 % 1009,1 hPa 0,0 l/m 0 min 2 min 0,0 UV-I 0 W/m 10,3 km/h (2 Bft)
01.01.2014 01:40 6,1 C 3,9 C 89 % 1009,2 hPa 0,0 l/m 0 min 2 min 0,0 UV-I 0 W/m 23,2 km/h (4 Bft)
01.01.2014 01:42 6,1 C 3,9 C 89 % 1009,1 hPa 0,0 l/m 0 min 2 min 0,0 UV-I 0 W/m 18,0 km/h (3 Bft)
01.01.2014 01:44 6,1 C 3,9 C 89 % 1009,1 hPa 0,0 l/m 0 min 2 min 0,0 UV-I 0 W/m 12,9 km/h (3 Bft)
01.01.2014 01:46 6,1 C 3,9 C 89 % 1009,1 hPa 0,0 l/m 0 min 2 min 0,0 UV-I 0 W/m 5,1 km/h (1 Bft)
01.01.2014 01:48 6,1 C 3,9 C 89 % 1009,1 hPa 0,0 l/m 0 min 2 min 0,0 UV-I 0 W/m 10,3 km/h (2 Bft)
01.01.2014 01:50 6,1 C 3,9 C 89 % 1009,1 hPa 0,0 l/m 0 min 2 min 0,0 UV-I 0 W/m 15,4 km/h (3 Bft)
01.01.2014 01:52 6,1 C 3,9 C 89 % 1009,1 hPa 0,2 l/m 0 min 2 min 0,0 UV-I 0 W/m 12,9 km/h (3 Bft)
01.01.2014 01:54 6,1 C 3,9 C 89 % 1009,0 hPa 0,0 l/m 0 min 2 min 0,0 UV-I 0 W/m 18,0 km/h (3 Bft)
01.01.2014 01:56 6,1 C 3,9 C 89 % 1009,0 hPa 0,0 l/m 0 min 2 min 0,0 UV-I 0 W/m 2,6 km/h (1 Bft)
01.01.2014 01:58 6,1 C 3,9 C 89 % 1009,0 hPa 0,0 l/m 0 min 2 min 0,0 UV-I 0 W/m 7,7 km/h (2 Bft)
01.01.2014 02:00 6,1 C 3,9 C 89 % 1009,0 hPa 0,0 l/m 0 min 2 min 0,0 UV-I 0 W/m 0,0 km/h (0 Bft)
01.01.2014 02:02 6,1 C 3,9 C 89 % 1009,0 hPa 0,0 l/m 0 min 0 min 0,0 UV-I 0 W/m 7,7 km/h (2 Bft)
01.01.2014 02:04 6,1 C 3,9 C 89 % 1009,1 hPa 0,0 l/m 0 min 2 min 0,0 UV-I 0 W/m 2,6 km/h (1 Bft)
01.01.2014 02:06 6,1 C 3,9 C 89 % 1009,1 hPa 0,0 l/m 0 min 2 min 0,0 UV-I 0 W/m 0,0 km/h (0 Bft)
01.01.2014 02:08 6,1 C 3,9 C 89 % 1009,1 hPa 0,0 l/m 0 min 0 min 0,0 UV-I 0 W/m 10,3 km/h (2 Bft)
01.01.2014 02:10 6,1 C 3,9 C 89 % 1009,1 hPa 0,0 l/m 0 min 2 min 0,0 UV-I 0 W/m 18,0 km/h (3 Bft)
01.01.2014 02:12 6,1 C 3,9 C 89 % 1009,2 hPa 0,0 l/m 0 min 0 min 0,0 UV-I 0 W/m 18,0 km/h (3 Bft)
01.01.2014 02:14 6,1 C 3,9 C 89 % 1009,2 hPa 0,0 l/m 0 min 0 min 0,0 UV-I 0 W/m 5,1 km/h (1 Bft)
01.01.2014 02:16 6,1 C 3,9 C 90 % 1009,3 hPa 0,0 l/m 0 min 0 min 0,0 UV-I 0 W/m 7,7 km/h (2 Bft)
01.01.2014 02:18 6,1 C 3,9 C 90 % 1009,1 hPa 0,0 l/m 0 min 2 min 0,0 UV-I 0 W/m 15,4 km/h (3 Bft)
01.01.2014 02:20 6,1 C 3,9 C 90 % 1009,2 hPa 0,0 l/m 0 min 0 min 0,0 UV-I 0 W/m 15,4 km/h (3 Bft)
01.01.2014 02:22 6,0 C 3,9 C 90 % 1009,2 hPa 0,0 l/m 0 min 0 min 0,0 UV-I 0 W/m 12,9 km/h (3 Bft)
01.01.2014 02:24 6,0 C 3,9 C 90 % 1009,2 hPa 0,0 l/m 0 min 0 min 0,0 UV-I 0 W/m 7,7 km/h (2 Bft)
01.01.2014 02:26 6,0 C 3,9 C 90 % 1009,1 hPa 0,0 l/m 0 min 0 min 0,0 UV-I 0 W/m 7,7 km/h (2 Bft)
01.01.2014 02:28 6,0 C 3,9 C 90 % 1009,2 hPa 0,0 l/m 0 min 0 min 0,0 UV-I 0 W/m 7,7 km/h (2 Bft)
01.01.2014 02:30 6,0 C 3,9 C 90 % 1009,2 hPa 0,0 l/m 0 min 0 min 0,0 UV-I 0 W/m 10,3 km/h (2 Bft)
01.01.2014 02:32 6,0 C 3,9 C 90 % 1009,2 hPa 0,0 l/m 0 min 0 min 0,0 UV-I 0 W/m 10,3 km/h (2 Bft)
01.01.2014 02:34 6,0 C 3,9 C 90 % 1009,2 hPa 0,0 l/m 0 min 0 min 0,0 UV-I 0 W/m 15,4 km/h (3 Bft)
01.01.2014 02:36 6,0 C 3,9 C 90 % 1009,2 hPa 0,0 l/m 0 min 0 min 0,0 UV-I 0 W/m 7,7 km/h (2 Bft)
01.01.2014 02:38 6,0 C 3,9 C 90 % 1009,3 hPa 0,0 l/m 0 min 0 min 0,0 UV-I 0 W/m 0,0 km/h (0 Bft)
01.01.2014 02:40 6,0 C 3,9 C 90 % 1009,3 hPa 0,0 l/m 0 min 0 min 0,0 UV-I 0 W/m 7,7 km/h (2 Bft)
01.01.2014 02:42 6,0 C 3,9 C 90 % 1009,3 hPa 0,0 l/m 0 min 0 min 0,0 UV-I 0 W/m 12,9 km/h (3 Bft)
01.01.2014 02:44 6,0 C 3,9 C 90 % 1009,4 hPa 0,0 l/m 0 min 0 min 0,0 UV-I 0 W/m 18,0 km/h (3 Bft)
01.01.2014 02:46 6,1 C 3,9 C 90 % 1009,4 hPa 0,0 l/m 0 min 0 min 0,0 UV-I 0 W/m 18,0 km/h (3 Bft)
01.01.2014 02:48 6,0 C 3,9 C 90 % 1009,4 hPa 0,0 l/m 0 min 0 min 0,0 UV-I 0 W/m 10,3 km/h (2 Bft)
01.01.2014 02:50 6,1 C 3,9 C 90 % 1009,4 hPa 0,0 l/m 0 min 0 min 0,0 UV-I 0 W/m 5,1 km/h (1 Bft)
01.01.2014 02:52 6,1 C 4,4 C 90 % 1009,4 hPa 0,0 l/m 0 min 0 min 0,0 UV-I 0 W/m 18,0 km/h (3 Bft)
01.01.2014 02:54 6,1 C 4,4 C 90 % 1009,4 hPa 0,0 l/m 0 min 0 min 0,0 UV-I 0 W/m 20,6 km/h (4 Bft)
01.01.2014 02:56 6,1 C 4,4 C 90 % 1009,4 hPa 0,0 l/m 0 min 0 min 0,0 UV-I 0 W/m 20,6 km/h (4 Bft)
01.01.2014 02:58 6,1 C 4,4 C 90 % 1009,4 hPa 0,0 l/m 0 min 0 min 0,0 UV-I 0 W/m 12,9 km/h (3 Bft)
01.01.2014 03:00 6,1 C 4,4 C 90 % 1009,3 hPa 0,0 l/m 0 min 0 min 0,0 UV-I 0 W/m 12,9 km/h (3 Bft)
01.01.2014 03:02 6,1 C 4,4 C 90 % 1009,3 hPa 0,0 l/m 0 min 0 min 0,0 UV-I 0 W/m 12,9 km/h (3 Bft)
01.01.2014 03:04 6,2 C 4,4 C 90 % 1009,3 hPa 0,0 l/m 0 min 0 min 0,0 UV-I 0 W/m 7,7 km/h (2 Bft)
01.01.2014 03:06 6,2 C 4,4 C 90 % 1009,3 hPa 0,0 l/m 0 min 0 min 0,0 UV-I 0 W/m 7,7 km/h (2 Bft)
01.01.2014 03:08 6,2 C 4,4 C 90 % 1009,3 hPa 0,0 l/m 0 min 0 min 0,0 UV-I 0 W/m 20,6 km/h (4 Bft)
01.01.2014 03:10 6,2 C 4,4 C 90 % 1009,4 hPa 0,0 l/m 0 min 0 min 0,0 UV-I 0 W/m 7,7 km/h (2 Bft)
01.01.2014 03:12 6,2 C 4,4 C 91 % 1009,4 hPa 0,0 l/m 0 min 0 min 0,0 UV-I 0 W/m 7,7 km/h (2 Bft)
01.01.2014 03:14 6,2 C 4,4 C 91 % 1009,3 hPa 0,0 l/m 0 min 0 min 0,0 UV-I 0 W/m 12,9 km/h (3 Bft)
01.01.2014 03:16 6,2 C 4,4 C 91 % 1009,4 hPa 0,0 l/m 0 min 0 min 0,0 UV-I 0 W/m 23,2 km/h (4 Bft)
01.01.2014 03:18 6,2 C 4,4 C 91 % 1009,4 hPa 0,0 l/m 0 min 0 min 0,0 UV-I 0 W/m 7,7 km/h (2 Bft)
01.01.2014 03:20 6,2 C 4,4 C 91 % 1009,3 hPa 0,0 l/m 0 min 0 min 0,0 UV-I 0 W/m 2,6 km/h (1 Bft)
01.01.2014 03:22 6,2 C 4,4 C 91 % 1009,3 hPa 0,0 l/m 0 min 0 min 0,0 UV-I 0 W/m 7,7 km/h (2 Bft)
01.01.2014 03:24 6,2 C 4,4 C 91 % 1009,4 hPa 0,0 l/m 0 min 0 min 0,0 UV-I 0 W/m 7,7 km/h (2 Bft)
01.01.2014 03:26 6,2 C 4,4 C 91 % 1009,4 hPa 0,0 l/m 0 min 0 min 0,0 UV-I 0 W/m 18,0 km/h (3 Bft)
01.01.2014 03:28 6,2 C 4,4 C 91 % 1009,4 hPa 0,0 l/m 0 min 0 min 0,0 UV-I 0 W/m 15,4 km/h (3 Bft)
01.01.2014 03:30 6,2 C 4,4 C 91 % 1009,4 hPa 0,0 l/m 0 min 0 min 0,0 UV-I 0 W/m 7,7 km/h (2 Bft)
01.01.2014 03:32 6,3 C 4,4 C 91 % 1009,4 hPa 0,0 l/m 0 min 0 min 0,0 UV-I 0 W/m 7,7 km/h (2 Bft)
01.01.2014 03:34 6,3 C 4,4 C 91 % 1009,4 hPa 0,0 l/m 0 min 0 min 0,0 UV-I 0 W/m 10,3 km/h (2 Bft)
01.01.2014 03:36 6,3 C 4,4 C 91 % 1009,4 hPa 0,0 l/m 0 min 0 min 0,0 UV-I 0 W/m 20,6 km/h (4 Bft)
01.01.2014 03:38 6,3 C 4,4 C 91 % 1009,4 hPa 0,0 l/m 0 min 0 min 0,0 UV-I 0 W/m 7,7 km/h (2 Bft)
01.01.2014 03:40 6,3 C 4,4 C 91 % 1009,3 hPa 0,0 l/m 0 min 0 min 0,0 UV-I 0 W/m 10,3 km/h (2 Bft)
01.01.2014 03:42 6,3 C 4,4 C 91 % 1009,4 hPa 0,0 l/m 0 min 0 min 0,0 UV-I 0 W/m 18,0 km/h (3 Bft)
01.01.2014 03:44 6,4 C 4,4 C 91 % 1009,4 hPa 0,0 l/m 0 min 0 min 0,0 UV-I 0 W/m 18,0 km/h (3 Bft)
01.01.2014 03:46 6,4 C 4,4 C 91 % 1009,4 hPa 0,0 l/m 0 min 0 min 0,0 UV-I 0 W/m 10,3 km/h (2 Bft)
01.01.2014 03:48 6,4 C 4,4 C 91 % 1009,4 hPa 0,0 l/m 0 min 0 min 0,0 UV-I 0 W/m 20,6 km/h (4 Bft)
01.01.2014 03:50 6,4 C 4,4 C 91 % 1009,4 hPa 0,0 l/m 0 min 0 min 0,0 UV-I 0 W/m 10,3 km/h (2 Bft)
01.01.2014 03:52 6,4 C 4,4 C 91 % 1009,4 hPa 0,0 l/m 0 min 0 min 0,0 UV-I 0 W/m 5,1 km/h (1 Bft)
01.01.2014 03:54 6,4 C 4,4 C 91 % 1009,5 hPa 0,0 l/m 0 min 0 min 0,0 UV-I 0 W/m 20,6 km/h (4 Bft)
01.01.2014 03:56 6,4 C 4,4 C 91 % 1009,4 hPa 0,0 l/m 0 min 0 min 0,0 UV-I 0 W/m 15,4 km/h (3 Bft)
01.01.2014 03:58 6,4 C 4,4 C 90 % 1009,4 hPa 0,0 l/m 0 min 0 min 0,0 UV-I 0 W/m 15,4 km/h (3 Bft)
01.01.2014 04:00 6,4 C 4,4 C 90 % 1009,5 hPa 0,0 l/m 0 min 0 min 0,0 UV-I 0 W/m 20,6 km/h (4 Bft)
01.01.2014 04:02 6,4 C 4,4 C 90 % 1009,6 hPa 0,0 l/m 0 min 0 min 0,0 UV-I 0 W/m 28,3 km/h (4 Bft)
01.01.2014 04:04 6,4 C 4,4 C 90 % 1009,4 hPa 0,0 l/m 0 min 0 min 0,0 UV-I 0 W/m 10,3 km/h (2 Bft)
01.01.2014 04:06 6,4 C 4,4 C 90 % 1009,5 hPa 0,0 l/m 0 min 0 min 0,0 UV-I 0 W/m 12,9 km/h (3 Bft)
01.01.2014 04:08 6,4 C 4,4 C 90 % 1009,7 hPa 0,0 l/m 0 min 0 min 0,0 UV-I 0 W/m 12,9 km/h (3 Bft)
01.01.2014 04:10 6,4 C 4,4 C 90 % 1009,5 hPa 0,0 l/m 0 min 0 min 0,0 UV-I 0 W/m 7,7 km/h (2 Bft)
01.01.2014 04:12 6,5 C 4,4 C 90 % 1009,5 hPa 0,0 l/m 0 min 0 min 0,0 UV-I 0 W/m 15,4 km/h (3 Bft)
01.01.2014 04:14 6,5 C 4,4 C 90 % 1009,5 hPa 0,0 l/m 0 min 0 min 0,0 UV-I 0 W/m 23,2 km/h (4 Bft)
01.01.2014 04:16 6,5 C 4,4 C 90 % 1009,5 hPa 0,0 l/m 0 min 0 min 0,0 UV-I 0 W/m 5,1 km/h (1 Bft)
01.01.2014 04:18 6,5 C 4,4 C 90 % 1009,5 hPa 0,0 l/m 0 min 0 min 0,0 UV-I 0 W/m 18,0 km/h (3 Bft)
01.01.2014 04:20 6,5 C 4,4 C 90 % 1009,5 hPa 0,0 l/m 0 min 0 min 0,0 UV-I 0 W/m 12,9 km/h (3 Bft)
01.01.2014 04:22 6,5 C 4,4 C 90 % 1009,5 hPa 0,0 l/m 0 min 0 min 0,0 UV-I 0 W/m 10,3 km/h (2 Bft)
01.01.2014 04:24 6,6 C 4,4 C 90 % 1009,4 hPa 0,0 l/m 0 min 0 min 0,0 UV-I 0 W/m 10,3 km/h (2 Bft)
01.01.2014 04:26 6,6 C 4,4 C 90 % 1009,5 hPa 0,0 l/m 0 min 0 min 0,0 UV-I 0 W/m 12,9 km/h (3 Bft)
01.01.2014 04:28 6,6 C 4,4 C 90 % 1009,5 hPa 0,0 l/m 0 min 0 min 0,0 UV-I 0 W/m 12,9 km/h (3 Bft)
01.01.2014 04:30 6,6 C 4,4 C 90 % 1009,5 hPa 0,0 l/m 0 min 0 min 0,0 UV-I 0 W/m 15,4 km/h (3 Bft)
01.01.2014 04:32 6,6 C 5,0 C 90 % 1009,6 hPa 0,0 l/m 0 min 0 min 0,0 UV-I 0 W/m 20,6 km/h (4 Bft)
01.01.2014 04:34 6,6 C 5,0 C 90 % 1009,5 hPa 0,0 l/m 0 min 0 min 0,0 UV-I 0 W/m 12,9 km/h (3 Bft)
01.01.2014 04:36 6,6 C 5,0 C 90 % 1009,7 hPa 0,0 l/m 0 min 0 min 0,0 UV-I 0 W/m 10,3 km/h (2 Bft)
01.01.2014 04:38 6,6 C 4,4 C 90 % 1009,6 hPa 0,0 l/m 0 min 0 min 0,0 UV-I 0 W/m 12,9 km/h (3 Bft)
01.01.2014 04:40 6,6 C 4,4 C 90 % 1009,6 hPa 0,0 l/m 0 min 0 min 0,0 UV-I 0 W/m 10,3 km/h (2 Bft)
01.01.2014 04:42 6,6 C 4,4 C 90 % 1009,5 hPa 0,0 l/m 0 min 0 min 0,0 UV-I 0 W/m 15,4 km/h (3 Bft)
01.01.2014 04:44 6,6 C 4,4 C 90 % 1009,5 hPa 0,0 l/m 0 min 0 min 0,0 UV-I 0 W/m 12,9 km/h (3 Bft)
01.01.2014 04:46 6,6 C 4,4 C 90 % 1009,4 hPa 0,0 l/m 0 min 0 min 0,0 UV-I 0 W/m 15,4 km/h (3 Bft)
01.01.2014 04:48 6,6 C 4,4 C 89 % 1009,4 hPa 0,0 l/m 0 min 0 min 0,0 UV-I 0 W/m 12,9 km/h (3 Bft)
01.01.2014 04:50 6,6 C 4,4 C 89 % 1009,4 hPa 0,0 l/m 0 min 0 min 0,0 UV-I 0 W/m 12,9 km/h (3 Bft)
01.01.2014 04:52 6,6 C 4,4 C 89 % 1009,4 hPa 0,0 l/m 0 min 0 min 0,0 UV-I 0 W/m 7,7 km/h (2 Bft)
01.01.2014 04:54 6,6 C 4,4 C 89 % 1009,4 hPa 0,0 l/m 0 min 0 min 0,0 UV-I 0 W/m 15,4 km/h (3 Bft)
01.01.2014 04:56 6,6 C 4,4 C 89 % 1009,4 hPa 0,0 l/m 0 min 0 min 0,0 UV-I 0 W/m 0,0 km/h (0 Bft)
01.01.2014 04:58 6,5 C 4,4 C 89 % 1009,5 hPa 0,0 l/m 0 min 0 min 0,0 UV-I 0 W/m 0,0 km/h (0 Bft)
01.01.2014 05:00 6,5 C 4,4 C 89 % 1009,7 hPa 0,0 l/m 0 min 0 min 0,0 UV-I 0 W/m 5,1 km/h (1 Bft)
01.01.2014 05:02 6,5 C 3,9 C 89 % 1009,7 hPa 0,0 l/m 0 min 0 min 0,0 UV-I 0 W/m 2,6 km/h (1 Bft)
01.01.2014 05:04 6,4 C 4,4 C 89 % 1009,7 hPa 0,0 l/m 0 min 0 min 0,0 UV-I 0 W/m 7,7 km/h (2 Bft)
01.01.2014 05:06 6,4 C 3,9 C 89 % 1009,7 hPa 0,0 l/m 0 min 0 min 0,0 UV-I 0 W/m 2,6 km/h (1 Bft)
01.01.2014 05:08 6,4 C 4,4 C 89 % 1009,7 hPa 0,0 l/m 0 min 0 min 0,0 UV-I 0 W/m 10,3 km/h (2 Bft)
01.01.2014 05:10 6,4 C 4,4 C 89 % 1009,7 hPa 0,0 l/m 0 min 0 min 0,0 UV-I 0 W/m 10,3 km/h (2 Bft)
01.01.2014 05:12 6,4 C 3,9 C 89 % 1009,6 hPa 0,0 l/m 0 min 0 min 0,0 UV-I 0 W/m 2,6 km/h (1 Bft)
01.01.2014 05:14 6,4 C 3,9 C 89 % 1009,7 hPa 0,0 l/m 0 min 0 min 0,0 UV-I 0 W/m 7,7 km/h (2 Bft)
01.01.2014 05:16 6,4 C 3,9 C 89 % 1009,7 hPa 0,0 l/m 0 min 0 min 0,0 UV-I 0 W/m 10,3 km/h (2 Bft)
01.01.2014 05:18 6,4 C 4,4 C 89 % 1009,6 hPa 0,0 l/m 0 min 0 min 0,0 UV-I 0 W/m 7,7 km/h (2 Bft)
01.01.2014 05:20 6,3 C 4,4 C 89 % 1009,5 hPa 0,0 l/m 0 min 0 min 0,0 UV-I 0 W/m 10,3 km/h (2 Bft)
01.01.2014 05:22 6,3 C 4,4 C 90 % 1009,5 hPa 0,0 l/m 0 min 0 min 0,0 UV-I 0 W/m 0,0 km/h (0 Bft)
01.01.2014 05:24 6,3 C 4,4 C 90 % 1009,6 hPa 0,0 l/m 0 min 0 min 0,0 UV-I 0 W/m 10,3 km/h (2 Bft)
01.01.2014 05:26 6,3 C 4,4 C 90 % 1009,6 hPa 0,0 l/m 0 min 0 min 0,0 UV-I 0 W/m 10,3 km/h (2 Bft)
01.01.2014 05:28 6,3 C 4,4 C 90 % 1009,7 hPa 0,0 l/m 0 min 0 min 0,0 UV-I 0 W/m 10,3 km/h (2 Bft)
01.01.2014 05:30 6,3 C 4,4 C 90 % 1009,7 hPa 0,0 l/m 0 min 0 min 0,0 UV-I 0 W/m 0,0 km/h (0 Bft)
01.01.2014 05:32 6,3 C 4,4 C 90 % 1009,7 hPa 0,0 l/m 0 min 0 min 0,0 UV-I 0 W/m 5,1 km/h (1 Bft)
01.01.2014 05:34 6,3 C 4,4 C 90 % 1009,7 hPa 0,0 l/m 0 min 0 min 0,0 UV-I 0 W/m 0,0 km/h (0 Bft)
01.01.2014 05:36 6,3 C 4,4 C 90 % 1009,7 hPa 0,0 l/m 0 min 0 min 0,0 UV-I 0 W/m 12,9 km/h (3 Bft)
01.01.2014 05:38 6,3 C 4,4 C 90 % 1009,7 hPa 0,0 l/m 0 min 0 min 0,0 UV-I 0 W/m 5,1 km/h (1 Bft)
01.01.2014 05:40 6,3 C 4,4 C 90 % 1009,8 hPa 0,0 l/m 0 min 0 min 0,0 UV-I 0 W/m 15,4 km/h (3 Bft)
01.01.2014 05:42 6,3 C 4,4 C 90 % 1009,8 hPa 0,0 l/m 0 min 0 min 0,0 UV-I 0 W/m 10,3 km/h (2 Bft)
01.01.2014 05:44 6,3 C 4,4 C 90 % 1009,8 hPa 0,0 l/m 0 min 0 min 0,0 UV-I 0 W/m 10,3 km/h (2 Bft)
01.01.2014 05:46 6,4 C 4,4 C 90 % 1009,8 hPa 0,0 l/m 0 min 0 min 0,0 UV-I 0 W/m 18,0 km/h (3 Bft)
01.01.2014 05:48 6,4 C 4,4 C 90 % 1009,8 hPa 0,0 l/m 0 min 0 min 0,0 UV-I 0 W/m 5,1 km/h (1 Bft)
01.01.2014 05:50 6,4 C 4,4 C 90 % 1009,8 hPa 0,0 l/m 0 min 0 min 0,0 UV-I 0 W/m 5,1 km/h (1 Bft)
01.01.2014 05:52 6,4 C 4,4 C 90 % 1009,8 hPa 0,0 l/m 0 min 0 min 0,0 UV-I 0 W/m 0,0 km/h (0 Bft)
01.01.2014 05:54 6,4 C 4,4 C 90 % 1009,8 hPa 0,0 l/m 0 min 0 min 0,0 UV-I 0 W/m 7,7 km/h (2 Bft)
01.01.2014 05:56 6,4 C 4,4 C 90 % 1009,8 hPa 0,0 l/m 0 min 0 min 0,0 UV-I 0 W/m 10,3 km/h (2 Bft)
01.01.2014 05:58 6,4 C 4,4 C 90 % 1009,7 hPa 0,0 l/m 0 min 0 min 0,0 UV-I 0 W/m 7,7 km/h (2 Bft)
01.01.2014 06:00 6,4 C 4,4 C 90 % 1009,7 hPa 0,0 l/m 0 min 0 min 0,0 UV-I 0 W/m 2,6 km/h (1 Bft)
01.01.2014 06:02 6,4 C 4,4 C 90 % 1009,7 hPa 0,0 l/m 0 min 0 min 0,0 UV-I 0 W/m 10,3 km/h (2 Bft)
01.01.2014 06:04 6,4 C 4,4 C 90 % 1009,6 hPa 0,0 l/m 0 min 0 min 0,0 UV-I 0 W/m 7,7 km/h (2 Bft)
01.01.2014 06:06 6,4 C 4,4 C 90 % 1009,7 hPa 0,0 l/m 0 min 0 min 0,0 UV-I 0 W/m 0,0 km/h (0 Bft)
01.01.2014 06:08 6,4 C 4,4 C 90 % 1009,8 hPa 0,0 l/m 0 min 0 min 0,0 UV-I 0 W/m 5,1 km/h (1 Bft)
01.01.2014 06:10 6,4 C 4,4 C 90 % 1009,6 hPa 0,0 l/m 0 min 0 min 0,0 UV-I 0 W/m 12,9 km/h (3 Bft)
01.01.2014 06:12 6,4 C 4,4 C 90 % 1009,6 hPa 0,0 l/m 0 min 0 min 0,0 UV-I 0 W/m 7,7 km/h (2 Bft)
01.01.2014 06:14 6,4 C 4,4 C 90 % 1009,5 hPa 0,0 l/m 0 min 0 min 0,0 UV-I 0 W/m 5,1 km/h (1 Bft)
01.01.2014 06:16 6,4 C 4,4 C 90 % 1009,5 hPa 0,0 l/m 0 min 0 min 0,0 UV-I 0 W/m 10,3 km/h (2 Bft)
01.01.2014 06:18 6,4 C 4,4 C 90 % 1009,4 hPa 0,0 l/m 0 min 0 min 0,0 UV-I 0 W/m 10,3 km/h (2 Bft)
01.01.2014 06:20 6,4 C 4,4 C 89 % 1009,5 hPa 0,0 l/m 0 min 0 min 0,0 UV-I 0 W/m 12,9 km/h (3 Bft)
01.01.2014 06:22 6,4 C 4,4 C 89 % 1009,4 hPa 0,0 l/m 0 min 0 min 0,0 UV-I 0 W/m 15,4 km/h (3 Bft)
01.01.2014 06:24 6,4 C 3,9 C 89 % 1009,4 hPa 0,0 l/m 0 min 0 min 0,0 UV-I 0 W/m 0,0 km/h (0 Bft)
01.01.2014 06:26 6,4 C 3,9 C 89 % 1009,5 hPa 0,0 l/m 0 min 0 min 0,0 UV-I 0 W/m 0,0 km/h (0 Bft)
01.01.2014 06:28 6,4 C 3,9 C 89 % 1009,4 hPa 0,0 l/m 0 min 0 min 0,0 UV-I 0 W/m 7,7 km/h (2 Bft)
01.01.2014 06:30 6,4 C 3,9 C 89 % 1009,5 hPa 0,0 l/m 0 min 0 min 0,0 UV-I 0 W/m 12,9 km/h (3 Bft)
01.01.2014 06:32 6,3 C 3,9 C 89 % 1009,5 hPa 0,0 l/m 0 min 0 min 0,0 UV-I 0 W/m 7,7 km/h (2 Bft)
01.01.2014 06:34 6,3 C 3,9 C 89 % 1009,4 hPa 0,0 l/m 0 min 0 min 0,0 UV-I 0 W/m 0,0 km/h (0 Bft)
01.01.2014 06:36 6,3 C 3,9 C 89 % 1009,5 hPa 0,0 l/m 0 min 0 min 0,0 UV-I 0 W/m 12,9 km/h (3 Bft)
01.01.2014 06:38 6,3 C 3,9 C 89 % 1009,6 hPa 0,0 l/m 0 min 0 min 0,0 UV-I 0 W/m 7,7 km/h (2 Bft)
01.01.2014 06:40 6,2 C 3,9 C 89 % 1009,6 hPa 0,0 l/m 0 min 0 min 0,0 UV-I 0 W/m 10,3 km/h (2 Bft)
01.01.2014 06:42 6,2 C 3,9 C 89 % 1009,7 hPa 0,0 l/m 0 min 0 min 0,0 UV-I 0 W/m 0,0 km/h (0 Bft)
01.01.2014 06:44 6,2 C 3,9 C 89 % 1009,6 hPa 0,0 l/m 0 min 0 min 0,0 UV-I 0 W/m 7,7 km/h (2 Bft)
01.01.2014 06:46 6,2 C 3,9 C 89 % 1009,6 hPa 0,0 l/m 0 min 0 min 0,0 UV-I 0 W/m 2,6 km/h (1 Bft)
01.01.2014 06:48 6,2 C 3,9 C 89 % 1009,7 hPa 0,0 l/m 0 min 0 min 0,0 UV-I 0 W/m 10,3 km/h (2 Bft)
01.01.2014 06:50 6,2 C 3,9 C 89 % 1009,7 hPa 0,0 l/m 0 min 0 min 0,0 UV-I 0 W/m 7,7 km/h (2 Bft)
01.01.2014 06:52 6,1 C 3,9 C 89 % 1009,9 hPa 0,0 l/m 0 min 0 min 0,0 UV-I 0 W/m 7,7 km/h (2 Bft)
01.01.2014 06:54 6,1 C 3,9 C 89 % 1009,9 hPa 0,0 l/m 0 min 0 min 0,0 UV-I 0 W/m 7,7 km/h (2 Bft)
01.01.2014 06:56 6,1 C 3,9 C 89 % 1009,9 hPa 0,0 l/m 0 min 0 min 0,0 UV-I 0 W/m 7,7 km/h (2 Bft)
01.01.2014 06:58 6,1 C 3,9 C 89 % 1009,9 hPa 0,0 l/m 0 min 0 min 0,0 UV-I 0 W/m 15,4 km/h (3 Bft)
01.01.2014 07:00 6,1 C 3,9 C 89 % 1009,9 hPa 0,0 l/m 0 min 0 min 0,0 UV-I 0 W/m 10,3 km/h (2 Bft)
01.01.2014 07:02 6,1 C 3,9 C 89 % 1009,9 hPa 0,0 l/m 0 min 0 min 0,0 UV-I 0 W/m 12,9 km/h (3 Bft)
01.01.2014 07:04 6,1 C 3,9 C 89 % 1009,8 hPa 0,0 l/m 0 min 0 min 0,0 UV-I 0 W/m 18,0 km/h (3 Bft)
01.01.2014 07:06 6,1 C 3,9 C 89 % 1009,9 hPa 0,0 l/m 0 min 0 min 0,0 UV-I 0 W/m 10,3 km/h (2 Bft)
01.01.2014 07:08 6,0 C 3,9 C 89 % 1009,9 hPa 0,0 l/m 0 min 0 min 0,0 UV-I 0 W/m 2,6 km/h (1 Bft)
01.01.2014 07:10 6,0 C 3,9 C 89 % 1010,0 hPa 0,0 l/m 0 min 0 min 0,0 UV-I 0 W/m 7,7 km/h (2 Bft)
01.01.2014 07:12 6,0 C 3,9 C 89 % 1009,9 hPa 0,0 l/m 0 min 0 min 0,0 UV-I 0 W/m 12,9 km/h (3 Bft)
01.01.2014 07:14 6,0 C 3,9 C 89 % 1009,9 hPa 0,0 l/m 0 min 0 min 0,0 UV-I 0 W/m 15,4 km/h (3 Bft)
01.01.2014 07:16 6,0 C 3,9 C 89 % 1009,8 hPa 0,0 l/m 0 min 0 min 0,0 UV-I 0 W/m 10,3 km/h (2 Bft)
01.01.2014 07:18 6,0 C 3,9 C 89 % 1009,8 hPa 0,0 l/m 0 min 0 min 0,0 UV-I 0 W/m 10,3 km/h (2 Bft)
01.01.2014 07:20 6,0 C 3,9 C 89 % 1009,8 hPa 0,0 l/m 0 min 0 min 0,0 UV-I 0 W/m 5,1 km/h (1 Bft)
01.01.2014 07:22 5,9 C 3,9 C 89 % 1009,8 hPa 0,0 l/m 0 min 0 min 0,0 UV-I 0 W/m 15,4 km/h (3 Bft)
01.01.2014 07:24 5,9 C 3,9 C 89 % 1009,8 hPa 0,0 l/m 0 min 0 min 0,0 UV-I 0 W/m 12,9 km/h (3 Bft)
01.01.2014 07:26 5,9 C 3,9 C 89 % 1009,8 hPa 0,0 l/m 0 min 0 min 0,0 UV-I 0 W/m 10,3 km/h (2 Bft)
01.01.2014 07:28 5,9 C 3,3 C 89 % 1009,8 hPa 0,0 l/m 0 min 0 min 0,0 UV-I 0 W/m 10,3 km/h (2 Bft)
01.01.2014 07:30 5,9 C 3,3 C 89 % 1009,9 hPa 0,0 l/m 0 min 0 min 0,0 UV-I 0 W/m 0,0 km/h (0 Bft)
01.01.2014 07:32 5,9 C 3,3 C 89 % 1009,9 hPa 0,0 l/m 0 min 0 min 0,0 UV-I 0 W/m 0,0 km/h (0 Bft)
01.01.2014 07:34 5,8 C 3,3 C 89 % 1009,9 hPa 0,0 l/m 0 min 0 min 0,0 UV-I 0 W/m 0,0 km/h (0 Bft)
01.01.2014 07:36 5,8 C 3,3 C 89 % 1009,9 hPa 0,0 l/m 0 min 0 min 0,0 UV-I 0 W/m 0,0 km/h (0 Bft)
01.01.2014 07:38 5,8 C 3,3 C 89 % 1009,8 hPa 0,0 l/m 0 min 0 min 0,0 UV-I 0 W/m 7,7 km/h (2 Bft)
01.01.2014 07:40 5,8 C 3,3 C 89 % 1009,9 hPa 0,0 l/m 0 min 0 min 0,0 UV-I 0 W/m 7,7 km/h (2 Bft)
01.01.2014 07:42 5,8 C 3,3 C 89 % 1009,9 hPa 0,0 l/m 0 min 0 min 0,0 UV-I 0 W/m 5,1 km/h (1 Bft)
01.01.2014 07:44 5,7 C 3,3 C 89 % 1009,9 hPa 0,0 l/m 0 min 0 min 0,0 UV-I 0 W/m 10,3 km/h (2 Bft)
01.01.2014 07:46 5,7 C 3,3 C 89 % 1009,9 hPa 0,0 l/m 0 min 0 min 0,0 UV-I 0 W/m 7,7 km/h (2 Bft)
01.01.2014 07:48 5,7 C 3,3 C 89 % 1009,9 hPa 0,0 l/m 0 min 0 min 0,0 UV-I 0 W/m 5,1 km/h (1 Bft)
01.01.2014 07:50 5,7 C 3,3 C 89 % 1009,9 hPa 0,0 l/m 0 min 0 min 0,0 UV-I 0 W/m 0,0 km/h (0 Bft)
01.01.2014 07:52 5,6 C 3,3 C 89 % 1009,9 hPa 0,0 l/m 0 min 0 min 0,0 UV-I 0 W/m 5,1 km/h (1 Bft)
01.01.2014 07:54 5,6 C 3,3 C 89 % 1009,9 hPa 0,0 l/m 0 min 0 min 0,0 UV-I 0 W/m 12,9 km/h (3 Bft)
01.01.2014 07:56 5,6 C 2,8 C 89 % 1009,9 hPa 0,0 l/m 0 min 0 min 0,0 UV-I 0 W/m 7,7 km/h (2 Bft)
01.01.2014 07:58 5,5 C 2,8 C 89 % 1009,9 hPa 0,0 l/m 0 min 0 min 0,0 UV-I 0 W/m 0,0 km/h (0 Bft)
01.01.2014 08:00 5,5 C 2,8 C 89 % 1009,9 hPa 0,0 l/m 0 min 0 min 0,0 UV-I 0 W/m 10,3 km/h (2 Bft)
01.01.2014 08:02 5,4 C 2,8 C 89 % 1009,9 hPa 0,0 l/m 0 min 0 min 0,0 UV-I 0 W/m 7,7 km/h (2 Bft)
01.01.2014 08:04 5,4 C 2,8 C 89 % 1009,9 hPa 0,0 l/m 0 min 0 min 0,0 UV-I 0 W/m 10,3 km/h (2 Bft)
01.01.2014 08:06 5,4 C 2,8 C 89 % 1009,9 hPa 0,0 l/m 0 min 0 min 0,0 UV-I 0 W/m 2,6 km/h (1 Bft)
01.01.2014 08:08 5,3 C 2,8 C 89 % 1009,9 hPa 0,0 l/m 0 min 0 min 0,0 UV-I 0 W/m 0,0 km/h (0 Bft)
01.01.2014 08:10 5,3 C 2,8 C 89 % 1009,8 hPa 0,0 l/m 0 min 0 min 0,0 UV-I 0 W/m 0,0 km/h (0 Bft)
01.01.2014 08:12 5,3 C 2,2 C 89 % 1009,9 hPa 0,0 l/m 0 min 0 min 0,0 UV-I 0 W/m 2,6 km/h (1 Bft)
01.01.2014 08:14 5,2 C 2,2 C 89 % 1009,9 hPa 0,0 l/m 0 min 0 min 0,0 UV-I 0 W/m 0,0 km/h (0 Bft)
01.01.2014 08:16 5,2 C 2,2 C 89 % 1009,9 hPa 0,0 l/m 0 min 0 min 0,0 UV-I 0 W/m 7,7 km/h (2 Bft)
01.01.2014 08:18 5,2 C 2,2 C 89 % 1009,8 hPa 0,0 l/m 0 min 0 min 0,0 UV-I 0 W/m 2,6 km/h (1 Bft)
01.01.2014 08:20 5,1 C 2,2 C 89 % 1009,9 hPa 0,0 l/m 0 min 0 min 0,0 UV-I 0 W/m 5,1 km/h (1 Bft)
01.01.2014 08:22 5,1 C 2,2 C 89 % 1009,8 hPa 0,0 l/m 0 min 0 min 0,0 UV-I 0 W/m 0,0 km/h (0 Bft)
01.01.2014 08:24 5,1 C 2,2 C 89 % 1009,8 hPa 0,0 l/m 0 min 0 min 0,0 UV-I 0 W/m 2,6 km/h (1 Bft)
01.01.2014 08:26 5,0 C 2,2 C 89 % 1009,9 hPa 0,0 l/m 0 min 0 min 0,0 UV-I 0 W/m 7,7 km/h (2 Bft)
01.01.2014 08:28 4,9 C 2,2 C 89 % 1009,9 hPa 0,0 l/m 0 min 0 min 0,0 UV-I 0 W/m 5,1 km/h (1 Bft)
01.01.2014 08:30 4,9 C 2,2 C 89 % 1009,9 hPa 0,0 l/m 0 min 0 min 0,0 UV-I 0 W/m 5,1 km/h (1 Bft)
01.01.2014 08:32 4,9 C 2,2 C 89 % 1009,9 hPa 0,0 l/m 0 min 0 min 0,0 UV-I 0 W/m 7,7 km/h (2 Bft)
01.01.2014 08:34 4,8 C 2,8 C 89 % 1009,9 hPa 0,0 l/m 0 min 0 min 0,0 UV-I 0 W/m 7,7 km/h (2 Bft)
01.01.2014 08:36 4,8 C 2,8 C 89 % 1009,8 hPa 0,0 l/m 0 min 0 min 0,0 UV-I 5 W/m 10,3 km/h (2 Bft)
01.01.2014 08:38 4,8 C 2,8 C 89 % 1009,8 hPa 0,0 l/m 0 min 0 min 0,0 UV-I 5 W/m 5,1 km/h (1 Bft)
01.01.2014 08:40 4,8 C 2,2 C 89 % 1009,8 hPa 0,0 l/m 0 min 0 min 0,0 UV-I 5 W/m 0,0 km/h (0 Bft)
01.01.2014 08:42 4,7 C 2,2 C 90 % 1009,9 hPa 0,0 l/m 0 min 0 min 0,0 UV-I 7 W/m 5,1 km/h (1 Bft)
01.01.2014 08:44 4,7 C 2,2 C 90 % 1009,9 hPa 0,0 l/m 0 min 0 min 0,0 UV-I 7 W/m 2,6 km/h (1 Bft)
01.01.2014 08:46 4,7 C 2,2 C 90 % 1009,9 hPa 0,0 l/m 0 min 0 min 0,0 UV-I 7 W/m 2,6 km/h (1 Bft)
01.01.2014 08:48 4,7 C 2,2 C 89 % 1009,9 hPa 0,0 l/m 0 min 0 min 0,0 UV-I 9 W/m 10,3 km/h (2 Bft)
01.01.2014 08:50 4,6 C 2,2 C 90 % 1009,9 hPa 0,0 l/m 0 min 0 min 0,0 UV-I 9 W/m 5,1 km/h (1 Bft)
01.01.2014 08:52 4,6 C 2,2 C 90 % 1009,8 hPa 0,0 l/m 0 min 0 min 0,0 UV-I 11 W/m 7,7 km/h (2 Bft)
01.01.2014 08:54 4,6 C 2,2 C 90 % 1009,9 hPa 0,0 l/m 0 min 0 min 0,0 UV-I 11 W/m 7,7 km/h (2 Bft)
01.01.2014 08:56 4,6 C 2,2 C 90 % 1009,9 hPa 0,0 l/m 0 min 0 min 0,0 UV-I 12 W/m 5,1 km/h (1 Bft)
01.01.2014 08:58 4,6 C 2,2 C 90 % 1009,9 hPa 0,0 l/m 0 min 0 min 0,0 UV-I 12 W/m 10,3 km/h (2 Bft)
01.01.2014 09:00 4,6 C 2,2 C 90 % 1010,0 hPa 0,0 l/m 0 min 0 min 0,0 UV-I 12 W/m 7,7 km/h (2 Bft)
01.01.2014 09:02 4,5 C 2,2 C 90 % 1010,0 hPa 0,0 l/m 0 min 0 min 0,0 UV-I 14 W/m 0,0 km/h (0 Bft)
01.01.2014 09:04 4,5 C 2,2 C 90 % 1010,0 hPa 0,0 l/m 0 min 0 min 0,0 UV-I 14 W/m 7,7 km/h (2 Bft)
01.01.2014 09:06 4,5 C 2,2 C 90 % 1009,9 hPa 0,0 l/m 0 min 0 min 0,0 UV-I 14 W/m 15,4 km/h (3 Bft)
01.01.2014 09:08 4,4 C 2,2 C 90 % 1009,9 hPa 0,0 l/m 0 min 0 min 0,0 UV-I 16 W/m 5,1 km/h (1 Bft)
01.01.2014 09:10 4,4 C 2,2 C 90 % 1009,9 hPa 0,0 l/m 0 min 0 min 0,0 UV-I 16 W/m 7,7 km/h (2 Bft)
01.01.2014 09:12 4,4 C 2,2 C 90 % 1009,9 hPa 0,0 l/m 0 min 0 min 0,0 UV-I 16 W/m 10,3 km/h (2 Bft)
01.01.2014 09:14 4,4 C 2,2 C 90 % 1009,9 hPa 0,0 l/m 0 min 0 min 0,0 UV-I 18 W/m 7,7 km/h (2 Bft)
01.01.2014 09:16 4,4 C 2,2 C 90 % 1009,9 hPa 0,0 l/m 0 min 0 min 0,0 UV-I 18 W/m 10,3 km/h (2 Bft)
01.01.2014 09:18 4,4 C 2,2 C 90 % 1009,9 hPa 0,0 l/m 0 min 0 min 0,0 UV-I 19 W/m 10,3 km/h (2 Bft)
01.01.2014 09:20 4,3 C 2,2 C 90 % 1009,9 hPa 0,0 l/m 0 min 0 min 0,0 UV-I 19 W/m 5,1 km/h (1 Bft)
01.01.2014 09:22 4,3 C 2,2 C 90 % 1009,9 hPa 0,0 l/m 0 min 0 min 0,0 UV-I 19 W/m 10,3 km/h (2 Bft)
01.01.2014 09:24 4,3 C 2,2 C 90 % 1009,9 hPa 0,0 l/m 0 min 0 min 0,0 UV-I 21 W/m 12,9 km/h (3 Bft)
01.01.2014 09:26 4,3 C 2,8 C 90 % 1009,9 hPa 0,0 l/m 0 min 0 min 0,0 UV-I 21 W/m 12,9 km/h (3 Bft)
01.01.2014 09:28 4,3 C 2,8 C 90 % 1010,0 hPa 0,0 l/m 0 min 0 min 0,0 UV-I 21 W/m 10,3 km/h (2 Bft)
01.01.2014 09:30 4,3 C 2,2 C 90 % 1010,0 hPa 0,0 l/m 0 min 0 min 0,0 UV-I 23 W/m 5,1 km/h (1 Bft)
01.01.2014 09:32 4,3 C 2,2 C 90 % 1010,0 hPa 0,0 l/m 0 min 0 min 0,0 UV-I 33 W/m 15,4 km/h (3 Bft)
01.01.2014 09:34 4,3 C 2,8 C 90 % 1010,0 hPa 0,0 l/m 0 min 0 min 0,0 UV-I 35 W/m 12,9 km/h (3 Bft)
01.01.2014 09:36 4,3 C 2,8 C 90 % 1010,0 hPa 0,0 l/m 0 min 0 min 0,0 UV-I 33 W/m 12,9 km/h (3 Bft)
01.01.2014 09:38 4,3 C 2,8 C 90 % 1009,9 hPa 0,0 l/m 0 min 0 min 0,0 UV-I 33 W/m 10,3 km/h (2 Bft)
01.01.2014 09:40 4,3 C 2,8 C 90 % 1010,0 hPa 0,0 l/m 0 min 0 min 0,0 UV-I 32 W/m 10,3 km/h (2 Bft)
01.01.2014 09:42 4,3 C 2,8 C 90 % 1010,0 hPa 0,0 l/m 0 min 0 min 0,0 UV-I 32 W/m 15,4 km/h (3 Bft)
01.01.2014 09:44 4,3 C 2,8 C 90 % 1009,9 hPa 0,0 l/m 0 min 0 min 0,0 UV-I 40 W/m 7,7 km/h (2 Bft)
01.01.2014 09:46 4,3 C 2,8 C 90 % 1010,1 hPa 0,0 l/m 0 min 0 min 0,0 UV-I 49 W/m 10,3 km/h (2 Bft)
01.01.2014 09:48 4,4 C 2,8 C 90 % 1009,9 hPa 0,0 l/m 0 min 0 min 0,0 UV-I 53 W/m 15,4 km/h (3 Bft)
01.01.2014 09:50 4,4 C 2,8 C 90 % 1010,0 hPa 0,0 l/m 0 min 0 min 0,0 UV-I 53 W/m 15,4 km/h (3 Bft)
01.01.2014 09:52 4,4 C 2,8 C 90 % 1009,9 hPa 0,0 l/m 0 min 0 min 0,0 UV-I 58 W/m 5,1 km/h (1 Bft)
01.01.2014 09:54 4,4 C 2,8 C 90 % 1009,9 hPa 0,0 l/m 0 min 0 min 0,0 UV-I 62 W/m 12,9 km/h (3 Bft)
01.01.2014 09:56 4,4 C 2,8 C 90 % 1009,9 hPa 0,0 l/m 0 min 0 min 0,0 UV-I 65 W/m 2,6 km/h (1 Bft)
01.01.2014 09:58 4,5 C 2,8 C 90 % 1010,1 hPa 0,0 l/m 0 min 0 min 0,0 UV-I 67 W/m 10,3 km/h (2 Bft)
01.01.2014 10:00 4,5 C 3,3 C 90 % 1010,2 hPa 0,0 l/m 0 min 0 min 0,0 UV-I 72 W/m 15,4 km/h (3 Bft)
01.01.2014 10:02 4,5 C 3,3 C 90 % 1010,1 hPa 0,0 l/m 0 min 0 min 0,0 UV-I 74 W/m 2,6 km/h (1 Bft)
01.01.2014 10:04 4,6 C 3,3 C 90 % 1009,9 hPa 0,0 l/m 0 min 0 min 0,0 UV-I 76 W/m 20,6 km/h (4 Bft)
01.01.2014 10:06 4,6 C 3,3 C 90 % 1010,0 hPa 0,0 l/m 0 min 0 min 0,0 UV-I 79 W/m 10,3 km/h (2 Bft)
01.01.2014 10:08 4,6 C 3,3 C 90 % 1010,0 hPa 0,0 l/m 0 min 0 min 0,0 UV-I 83 W/m 15,4 km/h (3 Bft)
01.01.2014 10:10 4,7 C 3,3 C 90 % 1009,9 hPa 0,0 l/m 0 min 0 min 0,0 UV-I 84 W/m 18,0 km/h (3 Bft)
01.01.2014 10:12 4,7 C 3,3 C 90 % 1009,9 hPa 0,0 l/m 0 min 0 min 0,0 UV-I 88 W/m 20,6 km/h (4 Bft)
01.01.2014 10:14 4,7 C 3,3 C 90 % 1009,9 hPa 0,0 l/m 0 min 0 min 0,0 UV-I 91 W/m 10,3 km/h (2 Bft)
01.01.2014 10:16 4,8 C 3,3 C 90 % 1009,8 hPa 0,0 l/m 0 min 0 min 0,0 UV-I 93 W/m 10,3 km/h (2 Bft)
01.01.2014 10:18 4,8 C 3,3 C 90 % 1009,8 hPa 0,0 l/m 2 min 0 min 0,0 UV-I 98 W/m 10,3 km/h (2 Bft)
01.01.2014 10:20 4,9 C 3,3 C 90 % 1009,8 hPa 0,0 l/m 2 min 0 min 0,0 UV-I 100 W/m 18,0 km/h (3 Bft)
01.01.2014 10:22 4,9 C 3,3 C 90 % 1009,8 hPa 0,0 l/m 2 min 0 min 0,0 UV-I 104 W/m 15,4 km/h (3 Bft)
01.01.2014 10:24 5,0 C 3,3 C 89 % 1009,9 hPa 0,0 l/m 2 min 0 min 0,0 UV-I 107 W/m 10,3 km/h (2 Bft)
01.01.2014 10:26 5,1 C 3,3 C 89 % 1009,8 hPa 0,0 l/m 2 min 0 min 0,0 UV-I 111 W/m 12,9 km/h (3 Bft)
01.01.2014 10:28 5,1 C 3,9 C 89 % 1009,9 hPa 0,0 l/m 2 min 0 min 0,0 UV-I 113 W/m 7,7 km/h (2 Bft)
01.01.2014 10:30 5,1 C 3,9 C 89 % 1009,9 hPa 0,0 l/m 2 min 0 min 0,0 UV-I 120 W/m 0,0 km/h (0 Bft)
01.01.2014 10:32 5,2 C 3,9 C 89 % 1009,9 hPa 0,0 l/m 2 min 0 min 0,0 UV-I 123 W/m 12,9 km/h (3 Bft)
01.01.2014 10:34 5,2 C 3,9 C 89 % 1009,9 hPa 0,0 l/m 2 min 0 min 0,0 UV-I 127 W/m 5,1 km/h (1 Bft)
01.01.2014 10:36 5,3 C 3,9 C 89 % 1009,9 hPa 0,0 l/m 2 min 0 min 0,0 UV-I 132 W/m 18,0 km/h (3 Bft)
01.01.2014 10:38 5,5 C 3,9 C 89 % 1009,9 hPa 0,0 l/m 2 min 0 min 0,0 UV-I 134 W/m 15,4 km/h (3 Bft)
01.01.2014 10:40 5,7 C 3,9 C 88 % 1009,9 hPa 0,0 l/m 2 min 0 min 0,0 UV-I 134 W/m 10,3 km/h (2 Bft)
01.01.2014 10:42 5,8 C 3,9 C 88 % 1010,0 hPa 0,0 l/m 2 min 0 min 0,0 UV-I 141 W/m 7,7 km/h (2 Bft)
01.01.2014 10:44 6,0 C 4,4 C 87 % 1010,0 hPa 0,0 l/m 2 min 0 min 0,0 UV-I 139 W/m 15,4 km/h (3 Bft)
01.01.2014 10:46 6,1 C 4,4 C 86 % 1009,9 hPa 0,0 l/m 2 min 0 min 0,0 UV-I 141 W/m 20,6 km/h (4 Bft)
01.01.2014 10:48 6,2 C 4,4 C 86 % 1009,9 hPa 0,0 l/m 0 min 0 min 0,0 UV-I 102 W/m 12,9 km/h (3 Bft)
01.01.2014 10:50 6,3 C 4,4 C 85 % 1009,9 hPa 0,0 l/m 0 min 0 min 0,0 UV-I 111 W/m 23,2 km/h (4 Bft)
01.01.2014 10:52 6,4 C 4,4 C 84 % 1009,8 hPa 0,0 l/m 2 min 0 min 0,0 UV-I 151 W/m 12,9 km/h (3 Bft)
01.01.2014 10:54 6,4 C 4,4 C 84 % 1009,8 hPa 0,0 l/m 2 min 0 min 0,0 UV-I 153 W/m 28,3 km/h (4 Bft)
01.01.2014 10:56 6,5 C 4,4 C 84 % 1009,8 hPa 0,0 l/m 2 min 0 min 0,0 UV-I 155 W/m 15,4 km/h (3 Bft)
01.01.2014 10:58 6,7 C 5,0 C 83 % 1009,7 hPa 0,0 l/m 2 min 0 min 0,0 UV-I 158 W/m 20,6 km/h (4 Bft)
01.01.2014 11:00 6,7 C 5,0 C 83 % 1009,8 hPa 0,0 l/m 2 min 0 min 0,0 UV-I 162 W/m 15,4 km/h (3 Bft)
01.01.2014 11:02 6,8 C 5,0 C 82 % 1009,8 hPa 0,0 l/m 2 min 0 min 0,0 UV-I 158 W/m 15,4 km/h (3 Bft)
01.01.2014 11:04 6,9 C 5,0 C 82 % 1009,8 hPa 0,0 l/m 2 min 0 min 0,0 UV-I 160 W/m 15,4 km/h (3 Bft)
01.01.2014 11:06 6,9 C 5,0 C 82 % 1009,7 hPa 0,0 l/m 2 min 0 min 0,0 UV-I 171 W/m 15,4 km/h (3 Bft)
01.01.2014 11:08 7,0 C 5,0 C 82 % 1009,7 hPa 0,0 l/m 2 min 0 min 0,0 UV-I 174 W/m 12,9 km/h (3 Bft)
01.01.2014 11:10 7,1 C 5,0 C 82 % 1009,7 hPa 0,0 l/m 2 min 0 min 0,0 UV-I 171 W/m 0,0 km/h (0 Bft)
01.01.2014 11:12 7,1 C 5,0 C 81 % 1009,6 hPa 0,0 l/m 2 min 0 min 0,0 UV-I 167 W/m 18,0 km/h (3 Bft)
01.01.2014 11:14 7,2 C 5,0 C 81 % 1009,7 hPa 0,0 l/m 2 min 0 min 0,0 UV-I 153 W/m 15,4 km/h (3 Bft)
01.01.2014 11:16 7,2 C 5,0 C 81 % 1009,7 hPa 0,0 l/m 2 min 0 min 0,0 UV-I 169 W/m 15,4 km/h (3 Bft)
01.01.2014 11:18 7,3 C 5,6 C 81 % 1009,6 hPa 0,0 l/m 2 min 0 min 0,0 UV-I 178 W/m 25,7 km/h (4 Bft)
01.01.2014 11:20 7,3 C 5,6 C 80 % 1009,4 hPa 0,0 l/m 2 min 0 min 0,0 UV-I 178 W/m 25,7 km/h (4 Bft)
01.01.2014 11:22 7,4 C 5,6 C 80 % 1009,4 hPa 0,0 l/m 2 min 0 min 0,0 UV-I 176 W/m 12,9 km/h (3 Bft)
01.01.2014 11:24 7,5 C 5,6 C 80 % 1009,4 hPa 0,0 l/m 2 min 0 min 0,0 UV-I 171 W/m 12,9 km/h (3 Bft)
01.01.2014 11:26 7,6 C 5,6 C 79 % 1009,4 hPa 0,0 l/m 2 min 0 min 0,0 UV-I 171 W/m 15,4 km/h (3 Bft)
01.01.2014 11:28 7,7 C 5,6 C 79 % 1009,4 hPa 0,0 l/m 2 min 0 min 0,0 UV-I 179 W/m 12,9 km/h (3 Bft)
01.01.2014 11:30 7,7 C 5,6 C 79 % 1009,4 hPa 0,0 l/m 2 min 0 min 0,0 UV-I 183 W/m 15,4 km/h (3 Bft)
01.01.2014 11:32 7,7 C 5,6 C 78 % 1009,3 hPa 0,0 l/m 2 min 0 min 0,0 UV-I 188 W/m 12,9 km/h (3 Bft)
01.01.2014 11:34 7,8 C 5,6 C 78 % 1009,4 hPa 0,0 l/m 2 min 0 min 0,0 UV-I 195 W/m 12,9 km/h (3 Bft)
01.01.2014 11:36 7,8 C 5,6 C 78 % 1009,4 hPa 0,0 l/m 2 min 0 min 0,0 UV-I 200 W/m 18,0 km/h (3 Bft)
01.01.2014 11:38 7,8 C 5,6 C 79 % 1009,4 hPa 0,0 l/m 2 min 0 min 0,0 UV-I 204 W/m 0,0 km/h (0 Bft)
01.01.2014 11:40 7,9 C 5,6 C 79 % 1009,4 hPa 0,0 l/m 2 min 0 min 0,0 UV-I 216 W/m 20,6 km/h (4 Bft)
01.01.2014 11:42 7,9 C 5,6 C 78 % 1009,3 hPa 0,0 l/m 2 min 0 min 0,0 UV-I 218 W/m 28,3 km/h (4 Bft)
01.01.2014 11:44 8,0 C 6,1 C 78 % 1009,3 hPa 0,0 l/m 2 min 0 min 0,0 UV-I 220 W/m 5,1 km/h (1 Bft)
01.01.2014 11:46 8,1 C 6,1 C 78 % 1009,2 hPa 0,0 l/m 2 min 0 min 0,0 UV-I 213 W/m 12,9 km/h (3 Bft)
01.01.2014 11:48 8,1 C 6,1 C 78 % 1009,3 hPa 0,0 l/m 2 min 0 min 0,0 UV-I 211 W/m 20,6 km/h (4 Bft)
01.01.2014 11:50 8,1 C 6,1 C 77 % 1009,2 hPa 0,0 l/m 2 min 0 min 0,0 UV-I 193 W/m 18,0 km/h (3 Bft)
01.01.2014 11:52 8,1 C 6,1 C 77 % 1009,2 hPa 0,0 l/m 2 min 0 min 0,0 UV-I 202 W/m 20,6 km/h (4 Bft)
01.01.2014 11:54 8,1 C 6,1 C 77 % 1009,2 hPa 0,0 l/m 2 min 0 min 0,0 UV-I 197 W/m 23,2 km/h (4 Bft)
01.01.2014 11:56 8,1 C 6,1 C 77 % 1009,1 hPa 0,0 l/m 2 min 0 min 0,0 UV-I 199 W/m 15,4 km/h (3 Bft)
01.01.2014 11:58 8,2 C 6,1 C 76 % 1009,2 hPa 0,0 l/m 2 min 0 min 0,0 UV-I 185 W/m 20,6 km/h (4 Bft)
01.01.2014 12:00 8,2 C 6,1 C 76 % 1009,1 hPa 0,0 l/m 0 min 0 min 0,0 UV-I 135 W/m 10,3 km/h (2 Bft)
01.01.2014 12:02 8,2 C 6,1 C 76 % 1009,1 hPa 0,0 l/m 0 min 0 min 0,0 UV-I 141 W/m 25,7 km/h (4 Bft)
01.01.2014 12:04 8,2 C 6,1 C 76 % 1009,0 hPa 0,0 l/m 2 min 0 min 0,0 UV-I 155 W/m 15,4 km/h (3 Bft)
01.01.2014 12:06 8,1 C 6,1 C 77 % 1009,0 hPa 0,0 l/m 2 min 0 min 0,0 UV-I 156 W/m 15,4 km/h (3 Bft)
01.01.2014 12:10 8,1 C 6,1 C 77 % 1008,9 hPa 0,0 l/m 2 min 0 min 0,0 UV-I 156 W/m 7,7 km/h (2 Bft)
01.01.2014 12:12 8,1 C 6,1 C 77 % 1008,9 hPa 0,0 l/m 2 min 0 min 0,0 UV-I 156 W/m 12,9 km/h (3 Bft)
01.01.2014 12:14 8,1 C 6,1 C 77 % 1008,9 hPa 0,0 l/m 2 min 0 min 0,0 UV-I 199 W/m 12,9 km/h (3 Bft)
01.01.2014 12:16 8,2 C 6,1 C 77 % 1008,8 hPa 0,0 l/m 2 min 0 min 0,0 UV-I 216 W/m 18,0 km/h (3 Bft)
01.01.2014 12:18 8,2 C 6,1 C 77 % 1008,7 hPa 0,0 l/m 2 min 0 min 0,0 UV-I 202 W/m 10,3 km/h (2 Bft)
01.01.2014 12:20 8,3 C 6,7 C 76 % 1008,7 hPa 0,0 l/m 2 min 0 min 0,0 UV-I 211 W/m 18,0 km/h (3 Bft)
01.01.2014 12:22 8,3 C 6,7 C 76 % 1008,7 hPa 0,0 l/m 2 min 0 min 0,0 UV-I 236 W/m 20,6 km/h (4 Bft)
01.01.2014 12:24 8,4 C 6,7 C 76 % 1008,7 hPa 0,0 l/m 2 min 0 min 0,0 UV-I 221 W/m 12,9 km/h (3 Bft)
01.01.2014 12:26 8,4 C 6,7 C 76 % 1008,7 hPa 0,0 l/m 2 min 0 min 0,0 UV-I 197 W/m 20,6 km/h (4 Bft)
01.01.2014 12:28 8,5 C 6,7 C 76 % 1008,7 hPa 0,0 l/m 2 min 0 min 0,0 UV-I 204 W/m 10,3 km/h (2 Bft)
01.01.2014 12:30 8,5 C 6,7 C 76 % 1008,6 hPa 0,0 l/m 2 min 0 min 0,0 UV-I 209 W/m 23,2 km/h (4 Bft)
01.01.2014 12:32 8,5 C 6,7 C 76 % 1008,6 hPa 0,0 l/m 2 min 0 min 0,0 UV-I 188 W/m 18,0 km/h (3 Bft)
01.01.2014 12:34 8,5 C 6,7 C 75 % 1008,5 hPa 0,0 l/m 2 min 0 min 0,0 UV-I 200 W/m 20,6 km/h (4 Bft)
01.01.2014 12:36 8,5 C 6,7 C 75 % 1008,5 hPa 0,0 l/m 2 min 0 min 0,0 UV-I 190 W/m 36,0 km/h (5 Bft)
01.01.2014 12:38 8,6 C 6,7 C 75 % 1008,5 hPa 0,0 l/m 2 min 0 min 0,0 UV-I 195 W/m 12,9 km/h (3 Bft)
01.01.2014 12:40 8,6 C 6,7 C 75 % 1008,5 hPa 0,0 l/m 2 min 0 min 0,0 UV-I 206 W/m 23,2 km/h (4 Bft)
01.01.2014 12:42 8,6 C 6,7 C 75 % 1008,3 hPa 0,0 l/m 2 min 0 min 0,0 UV-I 192 W/m 18,0 km/h (3 Bft)
01.01.2014 12:44 8,6 C 6,7 C 74 % 1008,4 hPa 0,0 l/m 2 min 0 min 0,0 UV-I 188 W/m 23,2 km/h (4 Bft)
01.01.2014 12:46 8,6 C 6,7 C 74 % 1008,3 hPa 0,0 l/m 2 min 0 min 0,0 UV-I 209 W/m 23,2 km/h (4 Bft)
01.01.2014 12:48 8,6 C 6,7 C 74 % 1008,3 hPa 0,0 l/m 2 min 0 min 0,0 UV-I 155 W/m 23,2 km/h (4 Bft)
01.01.2014 12:50 8,6 C 6,7 C 74 % 1008,3 hPa 0,0 l/m 2 min 0 min 0,0 UV-I 195 W/m 20,6 km/h (4 Bft)
01.01.2014 12:52 8,7 C 6,7 C 75 % 1008,2 hPa 0,0 l/m 2 min 0 min 0,0 UV-I 223 W/m 0,0 km/h (0 Bft)
01.01.2014 12:54 8,7 C 6,7 C 75 % 1008,2 hPa 0,0 l/m 2 min 0 min 0,0 UV-I 225 W/m 18,0 km/h (3 Bft)
01.01.2014 12:56 8,8 C 6,7 C 74 % 1008,3 hPa 0,0 l/m 2 min 0 min 0,0 UV-I 192 W/m 20,6 km/h (4 Bft)
01.01.2014 12:58 8,8 C 7,2 C 74 % 1008,2 hPa 0,0 l/m 2 min 0 min 0,0 UV-I 223 W/m 15,4 km/h (3 Bft)
01.01.2014 13:00 8,9 C 7,2 C 74 % 1008,2 hPa 0,0 l/m 2 min 0 min 0,0 UV-I 243 W/m 25,7 km/h (4 Bft)
01.01.2014 13:02 8,9 C 7,2 C 74 % 1008,2 hPa 0,0 l/m 2 min 0 min 0,0 UV-I 220 W/m 23,2 km/h (4 Bft)
01.01.2014 13:04 8,9 C 7,2 C 74 % 1008,2 hPa 0,0 l/m 2 min 0 min 0,0 UV-I 181 W/m 28,3 km/h (4 Bft)
01.01.2014 13:06 8,9 C 7,2 C 74 % 1008,1 hPa 0,0 l/m 2 min 0 min 0,0 UV-I 156 W/m 12,9 km/h (3 Bft)
01.01.2014 13:08 8,9 C 7,2 C 75 % 1008,2 hPa 0,0 l/m 2 min 0 min 0,0 UV-I 171 W/m 20,6 km/h (4 Bft)
01.01.2014 13:10 8,9 C 7,2 C 74 % 1008,2 hPa 0,0 l/m 2 min 0 min 0,0 UV-I 190 W/m 18,0 km/h (3 Bft)
01.01.2014 13:12 8,9 C 7,2 C 73 % 1008,1 hPa 0,0 l/m 2 min 0 min 0,0 UV-I 202 W/m 15,4 km/h (3 Bft)
01.01.2014 13:14 8,9 C 7,2 C 74 % 1008,1 hPa 0,0 l/m 0 min 0 min 0,0 UV-I 139 W/m 28,3 km/h (4 Bft)
01.01.2014 13:16 8,9 C 7,2 C 74 % 1008,0 hPa 0,0 l/m 2 min 0 min 0,0 UV-I 172 W/m 12,9 km/h (3 Bft)
01.01.2014 13:18 8,9 C 7,2 C 74 % 1008,0 hPa 0,0 l/m 2 min 0 min 0,0 UV-I 176 W/m 25,7 km/h (4 Bft)
01.01.2014 13:20 8,9 C 6,7 C 74 % 1008,0 hPa 0,0 l/m 2 min 0 min 0,0 UV-I 158 W/m 20,6 km/h (4 Bft)
01.01.2014 13:22 8,8 C 6,7 C 74 % 1007,9 hPa 0,0 l/m 2 min 0 min 0,0 UV-I 190 W/m 18,0 km/h (3 Bft)
01.01.2014 13:24 8,8 C 7,2 C 74 % 1007,9 hPa 0,0 l/m 2 min 0 min 0,0 UV-I 190 W/m 28,3 km/h (4 Bft)
01.01.2014 13:26 8,8 C 7,2 C 74 % 1007,8 hPa 0,0 l/m 2 min 0 min 0,0 UV-I 216 W/m 18,0 km/h (3 Bft)
01.01.2014 13:28 8,9 C 7,2 C 74 % 1007,8 hPa 0,0 l/m 2 min 0 min 0,0 UV-I 209 W/m 15,4 km/h (3 Bft)
01.01.2014 13:30 9,1 C 7,2 C 74 % 1007,8 hPa 0,0 l/m 2 min 0 min 0,0 UV-I 206 W/m 15,4 km/h (3 Bft)
01.01.2014 13:32 9,1 C 7,2 C 74 % 1007,7 hPa 0,0 l/m 2 min 0 min 0,0 UV-I 199 W/m 12,9 km/h (3 Bft)
01.01.2014 13:34 9,2 C 7,2 C 74 % 1007,6 hPa 0,0 l/m 2 min 0 min 0,0 UV-I 188 W/m 20,6 km/h (4 Bft)
01.01.2014 13:36 9,1 C 7,2 C 74 % 1007,6 hPa 0,0 l/m 2 min 0 min 0,0 UV-I 190 W/m 12,9 km/h (3 Bft)
01.01.2014 13:38 9,1 C 7,2 C 74 % 1007,6 hPa 0,0 l/m 2 min 0 min 0,0 UV-I 193 W/m 18,0 km/h (3 Bft)
01.01.2014 13:40 9,2 C 7,2 C 74 % 1007,6 hPa 0,0 l/m 2 min 0 min 0,0 UV-I 192 W/m 12,9 km/h (3 Bft)
01.01.2014 13:42 9,2 C 7,2 C 74 % 1007,6 hPa 0,0 l/m 2 min 0 min 0,0 UV-I 186 W/m 10,3 km/h (2 Bft)
01.01.2014 13:44 9,2 C 7,2 C 73 % 1007,5 hPa 0,0 l/m 0 min 0 min 0,0 UV-I 137 W/m 12,9 km/h (3 Bft)
01.01.2014 13:46 9,2 C 7,2 C 73 % 1007,5 hPa 0,0 l/m 2 min 0 min 0,0 UV-I 195 W/m 15,4 km/h (3 Bft)
01.01.2014 13:48 9,2 C 7,2 C 74 % 1007,5 hPa 0,0 l/m 2 min 0 min 0,0 UV-I 200 W/m 18,0 km/h (3 Bft)
01.01.2014 13:50 9,2 C 7,2 C 73 % 1007,5 hPa 0,0 l/m 2 min 0 min 0,0 UV-I 204 W/m 30,9 km/h (5 Bft)
01.01.2014 13:52 9,2 C 7,2 C 73 % 1007,5 hPa 0,0 l/m 2 min 0 min 0,0 UV-I 202 W/m 20,6 km/h (4 Bft)
01.01.2014 13:54 9,2 C 7,2 C 72 % 1007,4 hPa 0,0 l/m 2 min 0 min 0,0 UV-I 200 W/m 23,2 km/h (4 Bft)
01.01.2014 13:56 9,2 C 7,2 C 73 % 1007,4 hPa 0,0 l/m 2 min 0 min 0,0 UV-I 190 W/m 25,7 km/h (4 Bft)
01.01.2014 13:58 9,2 C 7,2 C 72 % 1007,3 hPa 0,0 l/m 2 min 0 min 0,0 UV-I 190 W/m 18,0 km/h (3 Bft)
01.01.2014 14:00 9,2 C 7,2 C 72 % 1007,4 hPa 0,0 l/m 2 min 0 min 0,0 UV-I 195 W/m 23,2 km/h (4 Bft)
01.01.2014 14:02 9,2 C 7,2 C 72 % 1007,3 hPa 0,0 l/m 2 min 0 min 0,0 UV-I 193 W/m 23,2 km/h (4 Bft)
01.01.2014 14:04 9,2 C 7,2 C 72 % 1007,3 hPa 0,0 l/m 2 min 0 min 0,0 UV-I 185 W/m 25,7 km/h (4 Bft)
01.01.2014 14:06 9,2 C 7,2 C 72 % 1007,3 hPa 0,0 l/m 2 min 0 min 0,0 UV-I 165 W/m 25,7 km/h (4 Bft)
01.01.2014 14:08 9,2 C 7,2 C 72 % 1007,2 hPa 0,0 l/m 2 min 0 min 0,0 UV-I 148 W/m 20,6 km/h (4 Bft)
01.01.2014 14:10 9,1 C 7,2 C 73 % 1007,2 hPa 0,0 l/m 2 min 0 min 0,0 UV-I 132 W/m 15,4 km/h (3 Bft)
01.01.2014 14:12 9,1 C 7,2 C 73 % 1007,1 hPa 0,0 l/m 0 min 0 min 0,0 UV-I 104 W/m 15,4 km/h (3 Bft)
01.01.2014 14:14 8,9 C 7,2 C 73 % 1007,2 hPa 0,0 l/m 0 min 0 min 0,0 UV-I 104 W/m 15,4 km/h (3 Bft)
01.01.2014 14:16 8,9 C 6,7 C 73 % 1007,1 hPa 0,0 l/m 0 min 0 min 0,0 UV-I 121 W/m 20,6 km/h (4 Bft)
01.01.2014 14:18 8,9 C 6,7 C 73 % 1007,1 hPa 0,0 l/m 2 min 0 min 0,0 UV-I 146 W/m 20,6 km/h (4 Bft)
01.01.2014 14:20 8,8 C 7,2 C 73 % 1007,1 hPa 0,0 l/m 2 min 0 min 0,0 UV-I 141 W/m 23,2 km/h (4 Bft)
01.01.2014 14:22 8,8 C 7,2 C 73 % 1007,0 hPa 0,0 l/m 2 min 0 min 0,0 UV-I 121 W/m 15,4 km/h (3 Bft)
01.01.2014 14:24 8,8 C 6,7 C 74 % 1006,9 hPa 0,0 l/m 0 min 0 min 0,0 UV-I 83 W/m 7,7 km/h (2 Bft)
01.01.2014 14:26 8,7 C 6,7 C 74 % 1006,9 hPa 0,0 l/m 0 min 0 min 0,0 UV-I 70 W/m 10,3 km/h (2 Bft)
01.01.2014 14:28 8,7 C 6,7 C 74 % 1006,8 hPa 0,0 l/m 0 min 0 min 0,0 UV-I 70 W/m 15,4 km/h (3 Bft)
01.01.2014 14:30 8,6 C 6,7 C 74 % 1006,9 hPa 0,0 l/m 0 min 0 min 0,0 UV-I 49 W/m 20,6 km/h (4 Bft)
01.01.2014 14:32 8,6 C 6,7 C 74 % 1006,9 hPa 0,0 l/m 0 min 0 min 0,0 UV-I 49 W/m 25,7 km/h (4 Bft)
01.01.2014 14:34 8,5 C 6,7 C 74 % 1006,8 hPa 0,0 l/m 0 min 0 min 0,0 UV-I 53 W/m 7,7 km/h (2 Bft)
01.01.2014 14:36 8,4 C 6,7 C 75 % 1006,7 hPa 0,0 l/m 0 min 0 min 0,0 UV-I 58 W/m 15,4 km/h (3 Bft)
01.01.2014 14:38 8,4 C 6,7 C 75 % 1006,7 hPa 0,0 l/m 0 min 0 min 0,0 UV-I 62 W/m 12,9 km/h (3 Bft)
01.01.2014 14:40 8,3 C 6,7 C 75 % 1006,7 hPa 0,0 l/m 0 min 0 min 0,0 UV-I 62 W/m 23,2 km/h (4 Bft)
01.01.2014 14:42 8,3 C 6,7 C 75 % 1006,7 hPa 0,0 l/m 0 min 0 min 0,0 UV-I 67 W/m 10,3 km/h (2 Bft)
01.01.2014 14:44 8,3 C 6,7 C 75 % 1006,6 hPa 0,0 l/m 0 min 0 min 0,0 UV-I 70 W/m 20,6 km/h (4 Bft)
01.01.2014 14:46 8,3 C 6,7 C 75 % 1006,5 hPa 0,0 l/m 0 min 0 min 0,0 UV-I 51 W/m 20,6 km/h (4 Bft)
01.01.2014 14:48 8,3 C 6,1 C 75 % 1006,6 hPa 0,0 l/m 0 min 0 min 0,0 UV-I 42 W/m 12,9 km/h (3 Bft)
01.01.2014 14:50 8,2 C 6,1 C 75 % 1006,6 hPa 0,0 l/m 0 min 0 min 0,0 UV-I 35 W/m 30,9 km/h (5 Bft)
01.01.2014 14:52 8,2 C 6,1 C 75 % 1006,5 hPa 0,0 l/m 0 min 0 min 0,0 UV-I 32 W/m 15,4 km/h (3 Bft)
01.01.2014 14:54 8,2 C 6,1 C 75 % 1006,4 hPa 0,0 l/m 0 min 0 min 0,0 UV-I 28 W/m 10,3 km/h (2 Bft)
01.01.2014 14:56 8,1 C 6,1 C 76 % 1006,5 hPa 0,0 l/m 0 min 0 min 0,0 UV-I 26 W/m 30,9 km/h (5 Bft)
01.01.2014 14:58 8,0 C 6,1 C 76 % 1006,4 hPa 0,0 l/m 0 min 0 min 0,0 UV-I 28 W/m 12,9 km/h (3 Bft)
01.01.2014 15:00 8,0 C 6,1 C 76 % 1006,4 hPa 0,0 l/m 0 min 0 min 0,0 UV-I 30 W/m 12,9 km/h (3 Bft)
01.01.2014 15:02 7,9 C 6,1 C 76 % 1006,3 hPa 0,0 l/m 0 min 0 min 0,0 UV-I 32 W/m 18,0 km/h (3 Bft)
01.01.2014 15:04 7,9 C 6,1 C 76 % 1006,4 hPa 0,0 l/m 0 min 0 min 0,0 UV-I 33 W/m 10,3 km/h (2 Bft)
01.01.2014 15:06 7,9 C 6,1 C 77 % 1006,4 hPa 0,0 l/m 0 min 0 min 0,0 UV-I 35 W/m 18,0 km/h (3 Bft)
01.01.2014 15:08 7,8 C 6,1 C 77 % 1006,4 hPa 0,0 l/m 0 min 0 min 0,0 UV-I 33 W/m 12,9 km/h (3 Bft)
01.01.2014 15:10 7,8 C 6,1 C 77 % 1006,3 hPa 0,0 l/m 0 min 0 min 0,0 UV-I 32 W/m 15,4 km/h (3 Bft)
01.01.2014 15:12 7,8 C 6,1 C 77 % 1006,3 hPa 0,0 l/m 0 min 0 min 0,0 UV-I 28 W/m 12,9 km/h (3 Bft)
01.01.2014 15:14 7,7 C 6,1 C 77 % 1006,3 hPa 0,0 l/m 0 min 0 min 0,0 UV-I 28 W/m 12,9 km/h (3 Bft)
01.01.2014 15:16 7,7 C 6,1 C 77 % 1006,3 hPa 0,0 l/m 0 min 0 min 0,0 UV-I 30 W/m 25,7 km/h (4 Bft)
01.01.2014 15:18 7,7 C 6,1 C 78 % 1006,4 hPa 0,0 l/m 0 min 0 min 0,0 UV-I 32 W/m 20,6 km/h (4 Bft)
01.01.2014 15:20 7,7 C 6,1 C 78 % 1006,3 hPa 0,0 l/m 0 min 0 min 0,0 UV-I 30 W/m 18,0 km/h (3 Bft)
01.01.2014 15:22 7,7 C 6,1 C 78 % 1006,2 hPa 0,0 l/m 0 min 0 min 0,0 UV-I 26 W/m 20,6 km/h (4 Bft)
01.01.2014 15:24 7,7 C 6,1 C 78 % 1006,2 hPa 0,0 l/m 0 min 0 min 0,0 UV-I 25 W/m 15,4 km/h (3 Bft)
01.01.2014 15:26 7,7 C 6,1 C 78 % 1006,2 hPa 0,0 l/m 0 min 0 min 0,0 UV-I 21 W/m 23,2 km/h (4 Bft)
01.01.2014 15:28 7,7 C 6,1 C 78 % 1006,1 hPa 0,0 l/m 0 min 0 min 0,0 UV-I 18 W/m 18,0 km/h (3 Bft)
01.01.2014 15:30 7,7 C 6,1 C 78 % 1006,1 hPa 0,0 l/m 0 min 0 min 0,0 UV-I 16 W/m 10,3 km/h (2 Bft)
01.01.2014 15:32 7,7 C 6,1 C 78 % 1006,1 hPa 0,0 l/m 0 min 0 min 0,0 UV-I 16 W/m 20,6 km/h (4 Bft)
01.01.2014 15:34 7,7 C 6,1 C 78 % 1006,1 hPa 0,0 l/m 0 min 0 min 0,0 UV-I 18 W/m 28,3 km/h (4 Bft)
01.01.2014 15:36 7,7 C 6,1 C 78 % 1006,1 hPa 0,0 l/m 0 min 0 min 0,0 UV-I 19 W/m 23,2 km/h (4 Bft)
01.01.2014 15:38 7,7 C 6,1 C 78 % 1006,1 hPa 0,0 l/m 0 min 0 min 0,0 UV-I 21 W/m 20,6 km/h (4 Bft)
01.01.2014 15:40 7,7 C 6,1 C 78 % 1006,0 hPa 0,0 l/m 0 min 0 min 0,0 UV-I 21 W/m 18,0 km/h (3 Bft)
01.01.2014 15:42 7,7 C 6,1 C 78 % 1006,0 hPa 0,0 l/m 0 min 0 min 0,0 UV-I 21 W/m 15,4 km/h (3 Bft)
01.01.2014 15:44 7,7 C 6,1 C 79 % 1006,0 hPa 0,0 l/m 0 min 0 min 0,0 UV-I 23 W/m 18,0 km/h (3 Bft)
01.01.2014 15:46 7,6 C 5,6 C 79 % 1005,9 hPa 0,0 l/m 0 min 0 min 0,0 UV-I 23 W/m 18,0 km/h (3 Bft)
01.01.2014 15:48 7,6 C 5,6 C 79 % 1005,9 hPa 0,0 l/m 0 min 0 min 0,0 UV-I 23 W/m 15,4 km/h (3 Bft)
01.01.2014 15:50 7,6 C 5,6 C 79 % 1005,8 hPa 0,0 l/m 0 min 0 min 0,0 UV-I 23 W/m 20,6 km/h (4 Bft)
01.01.2014 15:52 7,6 C 5,6 C 79 % 1005,8 hPa 0,0 l/m 0 min 0 min 0,0 UV-I 21 W/m 20,6 km/h (4 Bft)
01.01.2014 15:54 7,6 C 6,1 C 80 % 1005,8 hPa 0,0 l/m 0 min 0 min 0,0 UV-I 23 W/m 18,0 km/h (3 Bft)
01.01.2014 15:56 7,6 C 6,1 C 80 % 1005,7 hPa 0,0 l/m 0 min 0 min 0,0 UV-I 23 W/m 18,0 km/h (3 Bft)
01.01.2014 15:58 7,6 C 6,1 C 80 % 1005,6 hPa 0,0 l/m 0 min 0 min 0,0 UV-I 19 W/m 15,4 km/h (3 Bft)
01.01.2014 16:00 7,6 C 6,1 C 80 % 1005,7 hPa 0,0 l/m 0 min 0 min 0,0 UV-I 18 W/m 15,4 km/h (3 Bft)
01.01.2014 16:02 7,6 C 6,1 C 80 % 1005,6 hPa 0,0 l/m 0 min 0 min 0,0 UV-I 18 W/m 15,4 km/h (3 Bft)
01.01.2014 16:04 7,6 C 5,6 C 80 % 1005,6 hPa 0,0 l/m 0 min 0 min 0,0 UV-I 14 W/m 15,4 km/h (3 Bft)
01.01.2014 16:06 7,5 C 5,6 C 81 % 1005,6 hPa 0,0 l/m 0 min 0 min 0,0 UV-I 14 W/m 20,6 km/h (4 Bft)
01.01.2014 16:08 7,5 C 6,1 C 81 % 1005,5 hPa 0,0 l/m 0 min 0 min 0,0 UV-I 12 W/m 23,2 km/h (4 Bft)
01.01.2014 16:10 7,5 C 6,1 C 81 % 1005,5 hPa 0,0 l/m 0 min 0 min 0,0 UV-I 11 W/m 20,6 km/h (4 Bft)
01.01.2014 16:12 7,5 C 6,1 C 81 % 1005,4 hPa 0,0 l/m 0 min 0 min 0,0 UV-I 11 W/m 18,0 km/h (3 Bft)
01.01.2014 16:14 7,4 C 6,1 C 81 % 1005,3 hPa 0,0 l/m 0 min 0 min 0,0 UV-I 9 W/m 28,3 km/h (4 Bft)
01.01.2014 16:16 7,5 C 6,1 C 81 % 1005,3 hPa 0,0 l/m 0 min 0 min 0,0 UV-I 9 W/m 20,6 km/h (4 Bft)
01.01.2014 16:18 7,5 C 6,1 C 81 % 1005,2 hPa 0,0 l/m 0 min 0 min 0,0 UV-I 7 W/m 20,6 km/h (4 Bft)
01.01.2014 16:20 7,5 C 6,1 C 81 % 1005,1 hPa 0,0 l/m 0 min 0 min 0,0 UV-I 7 W/m 28,3 km/h (4 Bft)
01.01.2014 16:22 7,5 C 6,1 C 81 % 1005,1 hPa 0,0 l/m 0 min 0 min 0,0 UV-I 7 W/m 33,5 km/h (5 Bft)
01.01.2014 16:24 7,5 C 6,1 C 81 % 1005,1 hPa 0,0 l/m 0 min 0 min 0,0 UV-I 5 W/m 20,6 km/h (4 Bft)
01.01.2014 16:26 7,5 C 6,1 C 82 % 1005,1 hPa 0,0 l/m 0 min 0 min 0,0 UV-I 5 W/m 23,2 km/h (4 Bft)
01.01.2014 16:28 7,5 C 6,1 C 82 % 1005,1 hPa 0,0 l/m 0 min 0 min 0,0 UV-I 0 W/m 36,0 km/h (5 Bft)
01.01.2014 16:30 7,5 C 6,1 C 82 % 1005,1 hPa 0,0 l/m 0 min 0 min 0,0 UV-I 0 W/m 28,3 km/h (4 Bft)
01.01.2014 16:32 7,5 C 6,1 C 82 % 1005,2 hPa 0,0 l/m 0 min 0 min 0,0 UV-I 0 W/m 33,5 km/h (5 Bft)
01.01.2014 16:34 7,5 C 6,1 C 82 % 1005,2 hPa 0,0 l/m 0 min 0 min 0,0 UV-I 0 W/m 28,3 km/h (4 Bft)
01.01.2014 16:36 7,5 C 6,1 C 82 % 1005,1 hPa 0,0 l/m 0 min 0 min 0,0 UV-I 0 W/m 23,2 km/h (4 Bft)
01.01.2014 16:38 7,5 C 6,1 C 82 % 1005,1 hPa 0,0 l/m 0 min 0 min 0,0 UV-I 0 W/m 25,7 km/h (4 Bft)
01.01.2014 16:40 7,6 C 6,1 C 82 % 1005,0 hPa 0,0 l/m 0 min 0 min 0,0 UV-I 0 W/m 20,6 km/h (4 Bft)
01.01.2014 16:42 7,6 C 6,1 C 82 % 1005,0 hPa 0,0 l/m 0 min 0 min 0,0 UV-I 0 W/m 28,3 km/h (4 Bft)
01.01.2014 16:44 7,6 C 6,1 C 82 % 1005,0 hPa 0,0 l/m 0 min 0 min 0,0 UV-I 0 W/m 20,6 km/h (4 Bft)
01.01.2014 16:46 7,6 C 6,1 C 82 % 1005,0 hPa 0,0 l/m 0 min 0 min 0,0 UV-I 0 W/m 23,2 km/h (4 Bft)
01.01.2014 16:48 7,6 C 6,1 C 82 % 1005,0 hPa 0,0 l/m 0 min 0 min 0,0 UV-I 0 W/m 23,2 km/h (4 Bft)
01.01.2014 16:50 7,6 C 6,1 C 82 % 1005,0 hPa 0,0 l/m 0 min 0 min 0,0 UV-I 0 W/m 28,3 km/h (4 Bft)
01.01.2014 16:52 7,6 C 6,1 C 82 % 1005,0 hPa 0,0 l/m 0 min 0 min 0,0 UV-I 0 W/m 25,7 km/h (4 Bft)
01.01.2014 16:54 7,6 C 6,1 C 82 % 1004,9 hPa 0,0 l/m 0 min 0 min 0,0 UV-I 0 W/m 15,4 km/h (3 Bft)
01.01.2014 16:56 7,6 C 6,1 C 82 % 1004,9 hPa 0,0 l/m 0 min 0 min 0,0 UV-I 0 W/m 18,0 km/h (3 Bft)
01.01.2014 16:58 7,6 C 6,1 C 82 % 1004,8 hPa 0,0 l/m 0 min 0 min 0,0 UV-I 0 W/m 15,4 km/h (3 Bft)
01.01.2014 17:00 7,6 C 6,1 C 82 % 1004,8 hPa 0,0 l/m 0 min 0 min 0,0 UV-I 0 W/m 18,0 km/h (3 Bft)
01.01.2014 17:02 7,6 C 6,1 C 82 % 1004,7 hPa 0,0 l/m 0 min 0 min 0,0 UV-I 0 W/m 20,6 km/h (4 Bft)
01.01.2014 17:04 7,6 C 6,1 C 82 % 1004,7 hPa 0,0 l/m 0 min 0 min 0,0 UV-I 0 W/m 15,4 km/h (3 Bft)
01.01.2014 17:06 7,6 C 6,1 C 83 % 1004,7 hPa 0,0 l/m 0 min 0 min 0,0 UV-I 0 W/m 20,6 km/h (4 Bft)
01.01.2014 17:08 7,6 C 6,1 C 83 % 1004,7 hPa 0,0 l/m 0 min 0 min 0,0 UV-I 0 W/m 15,4 km/h (3 Bft)
01.01.2014 17:10 7,5 C 6,1 C 83 % 1004,7 hPa 0,0 l/m 0 min 0 min 0,0 UV-I 0 W/m 15,4 km/h (3 Bft)
01.01.2014 17:12 7,5 C 6,1 C 83 % 1004,7 hPa 0,0 l/m 0 min 0 min 0,0 UV-I 0 W/m 18,0 km/h (3 Bft)
01.01.2014 17:14 7,6 C 6,1 C 83 % 1004,6 hPa 0,0 l/m 0 min 0 min 0,0 UV-I 0 W/m 18,0 km/h (3 Bft)
01.01.2014 17:16 7,6 C 6,1 C 83 % 1004,6 hPa 0,0 l/m 0 min 0 min 0,0 UV-I 0 W/m 23,2 km/h (4 Bft)
01.01.2014 17:18 7,6 C 6,1 C 83 % 1004,5 hPa 0,0 l/m 0 min 0 min 0,0 UV-I 0 W/m 25,7 km/h (4 Bft)
01.01.2014 17:20 7,6 C 6,1 C 83 % 1004,5 hPa 0,0 l/m 0 min 0 min 0,0 UV-I 0 W/m 25,7 km/h (4 Bft)
01.01.2014 17:22 7,6 C 6,1 C 83 % 1004,5 hPa 0,0 l/m 0 min 0 min 0,0 UV-I 0 W/m 18,0 km/h (3 Bft)
01.01.2014 17:24 7,6 C 6,1 C 83 % 1004,4 hPa 0,0 l/m 0 min 0 min 0,0 UV-I 0 W/m 20,6 km/h (4 Bft)
01.01.2014 17:26 7,6 C 6,1 C 83 % 1004,4 hPa 0,0 l/m 0 min 0 min 0,0 UV-I 0 W/m 25,7 km/h (4 Bft)
01.01.2014 17:28 7,6 C 6,1 C 83 % 1004,4 hPa 0,0 l/m 0 min 0 min 0,0 UV-I 0 W/m 23,2 km/h (4 Bft)
01.01.2014 17:30 7,7 C 6,1 C 83 % 1004,3 hPa 0,0 l/m 0 min 0 min 0,0 UV-I 0 W/m 18,0 km/h (3 Bft)
01.01.2014 17:32 7,7 C 6,1 C 83 % 1004,3 hPa 0,0 l/m 0 min 0 min 0,0 UV-I 0 W/m 20,6 km/h (4 Bft)
01.01.2014 17:34 7,8 C 6,1 C 83 % 1004,3 hPa 0,0 l/m 0 min 0 min 0,0 UV-I 0 W/m 20,6 km/h (4 Bft)
01.01.2014 17:36 7,8 C 6,7 C 83 % 1004,2 hPa 0,0 l/m 0 min 0 min 0,0 UV-I 0 W/m 20,6 km/h (4 Bft)
01.01.2014 17:38 7,9 C 6,7 C 83 % 1004,2 hPa 0,0 l/m 0 min 0 min 0,0 UV-I 0 W/m 28,3 km/h (4 Bft)
01.01.2014 17:40 8,0 C 6,7 C 83 % 1004,2 hPa 0,0 l/m 0 min 0 min 0,0 UV-I 0 W/m 30,9 km/h (5 Bft)
01.01.2014 17:42 8,1 C 6,7 C 83 % 1004,1 hPa 0,0 l/m 0 min 0 min 0,0 UV-I 0 W/m 30,9 km/h (5 Bft)
01.01.2014 17:44 8,2 C 6,7 C 83 % 1004,0 hPa 0,0 l/m 0 min 0 min 0,0 UV-I 0 W/m 33,5 km/h (5 Bft)
01.01.2014 17:46 8,2 C 6,7 C 82 % 1004,1 hPa 0,0 l/m 0 min 0 min 0,0 UV-I 0 W/m 41,2 km/h (6 Bft)
01.01.2014 17:48 8,2 C 6,7 C 82 % 1004,2 hPa 0,0 l/m 0 min 0 min 0,0 UV-I 0 W/m 23,2 km/h (4 Bft)
01.01.2014 17:50 8,3 C 6,7 C 82 % 1004,2 hPa 0,0 l/m 0 min 0 min 0,0 UV-I 0 W/m 43,8 km/h (6 Bft)
01.01.2014 17:52 8,3 C 6,7 C 82 % 1004,1 hPa 0,0 l/m 0 min 0 min 0,0 UV-I 0 W/m 30,9 km/h (5 Bft)
01.01.2014 17:54 8,4 C 6,7 C 82 % 1004,1 hPa 0,0 l/m 0 min 0 min 0,0 UV-I 0 W/m 36,0 km/h (5 Bft)
01.01.2014 17:56 8,4 C 6,7 C 82 % 1004,1 hPa 0,0 l/m 0 min 0 min 0,0 UV-I 0 W/m 38,6 km/h (5 Bft)
01.01.2014 17:58 8,4 C 6,7 C 82 % 1004,0 hPa 0,0 l/m 0 min 0 min 0,0 UV-I 0 W/m 36,0 km/h (5 Bft)
01.01.2014 18:00 8,4 C 6,7 C 82 % 1004,0 hPa 0,0 l/m 0 min 0 min 0,0 UV-I 0 W/m 38,6 km/h (5 Bft)
01.01.2014 18:02 8,5 C 6,7 C 82 % 1003,9 hPa 0,0 l/m 0 min 0 min 0,0 UV-I 0 W/m 25,7 km/h (4 Bft)
01.01.2014 18:04 8,5 C 6,7 C 82 % 1003,9 hPa 0,0 l/m 0 min 0 min 0,0 UV-I 0 W/m 25,7 km/h (4 Bft)
01.01.2014 18:06 8,6 C 6,7 C 82 % 1003,9 hPa 0,0 l/m 0 min 0 min 0,0 UV-I 0 W/m 28,3 km/h (4 Bft)
01.01.2014 18:08 8,6 C 6,7 C 82 % 1004,0 hPa 0,0 l/m 0 min 2 min 0,0 UV-I 0 W/m 25,7 km/h (4 Bft)
01.01.2014 18:10 8,6 C 6,7 C 82 % 1004,0 hPa 0,0 l/m 0 min 2 min 0,0 UV-I 0 W/m 33,5 km/h (5 Bft)
01.01.2014 18:12 8,6 C 6,7 C 82 % 1003,9 hPa 0,0 l/m 0 min 2 min 0,0 UV-I 0 W/m 20,6 km/h (4 Bft)
01.01.2014 18:14 8,6 C 6,7 C 82 % 1003,9 hPa 0,0 l/m 0 min 2 min 0,0 UV-I 0 W/m 46,3 km/h (6 Bft)
01.01.2014 18:16 8,6 C 6,7 C 83 % 1003,8 hPa 0,0 l/m 0 min 2 min 0,0 UV-I 0 W/m 25,7 km/h (4 Bft)
01.01.2014 18:18 8,6 C 6,1 C 83 % 1003,9 hPa 0,0 l/m 0 min 2 min 0,0 UV-I 0 W/m 43,8 km/h (6 Bft)
01.01.2014 18:20 8,5 C 6,1 C 83 % 1003,8 hPa 0,0 l/m 0 min 2 min 0,0 UV-I 0 W/m 33,5 km/h (5 Bft)
01.01.2014 18:22 8,4 C 6,1 C 84 % 1003,7 hPa 0,0 l/m 0 min 2 min 0,0 UV-I 0 W/m 23,2 km/h (4 Bft)
01.01.2014 18:24 8,4 C 6,1 C 84 % 1003,7 hPa 0,0 l/m 0 min 2 min 0,0 UV-I 0 W/m 28,3 km/h (4 Bft)
01.01.2014 18:26 8,3 C 6,1 C 85 % 1003,6 hPa 0,0 l/m 0 min 2 min 0,0 UV-I 0 W/m 18,0 km/h (3 Bft)
01.01.2014 18:28 8,3 C 6,1 C 85 % 1003,6 hPa 0,0 l/m 0 min 2 min 0,0 UV-I 0 W/m 25,7 km/h (4 Bft)
01.01.2014 18:30 8,3 C 6,1 C 85 % 1003,6 hPa 0,0 l/m 0 min 2 min 0,0 UV-I 0 W/m 18,0 km/h (3 Bft)
01.01.2014 18:32 8,2 C 5,6 C 85 % 1003,6 hPa 0,0 l/m 0 min 2 min 0,0 UV-I 0 W/m 20,6 km/h (4 Bft)
01.01.2014 18:34 8,1 C 5,6 C 86 % 1003,5 hPa 0,0 l/m 0 min 2 min 0,0 UV-I 0 W/m 28,3 km/h (4 Bft)
01.01.2014 18:36 8,0 C 5,6 C 86 % 1003,6 hPa 0,0 l/m 0 min 2 min 0,0 UV-I 0 W/m 25,7 km/h (4 Bft)
01.01.2014 18:38 7,9 C 5,6 C 86 % 1003,6 hPa 0,0 l/m 0 min 2 min 0,0 UV-I 0 W/m 25,7 km/h (4 Bft)
01.01.2014 18:40 7,9 C 5,6 C 86 % 1003,5 hPa 0,0 l/m 0 min 2 min 0,0 UV-I 0 W/m 20,6 km/h (4 Bft)
01.01.2014 18:42 7,8 C 5,6 C 87 % 1003,4 hPa 0,0 l/m 0 min 2 min 0,0 UV-I 0 W/m 23,2 km/h (4 Bft)
01.01.2014 18:44 7,8 C 5,6 C 87 % 1003,4 hPa 0,0 l/m 0 min 2 min 0,0 UV-I 0 W/m 23,2 km/h (4 Bft)
01.01.2014 18:46 7,7 C 5,6 C 87 % 1003,4 hPa 0,0 l/m 0 min 2 min 0,0 UV-I 0 W/m 25,7 km/h (4 Bft)
01.01.2014 18:48 7,7 C 5,6 C 88 % 1003,3 hPa 0,0 l/m 0 min 2 min 0,0 UV-I 0 W/m 25,7 km/h (4 Bft)
01.01.2014 18:50 7,7 C 5,6 C 88 % 1003,3 hPa 0,0 l/m 0 min 2 min 0,0 UV-I 0 W/m 23,2 km/h (4 Bft)
01.01.2014 18:52 7,6 C 5,6 C 88 % 1003,3 hPa 0,0 l/m 0 min 2 min 0,0 UV-I 0 W/m 18,0 km/h (3 Bft)
01.01.2014 18:54 7,6 C 5,6 C 89 % 1003,4 hPa 0,0 l/m 0 min 2 min 0,0 UV-I 0 W/m 18,0 km/h (3 Bft)
01.01.2014 18:56 7,6 C 5,6 C 89 % 1003,3 hPa 0,0 l/m 0 min 2 min 0,0 UV-I 0 W/m 23,2 km/h (4 Bft)
01.01.2014 18:58 7,5 C 5,6 C 89 % 1003,3 hPa 0,0 l/m 0 min 2 min 0,0 UV-I 0 W/m 15,4 km/h (3 Bft)
01.01.2014 19:00 7,4 C 5,6 C 89 % 1003,3 hPa 0,0 l/m 0 min 2 min 0,0 UV-I 0 W/m 20,6 km/h (4 Bft)
01.01.2014 19:02 7,4 C 5,0 C 89 % 1003,3 hPa 0,0 l/m 0 min 2 min 0,0 UV-I 0 W/m 12,9 km/h (3 Bft)
01.01.2014 19:04 7,3 C 5,0 C 90 % 1003,2 hPa 0,0 l/m 0 min 2 min 0,0 UV-I 0 W/m 23,2 km/h (4 Bft)
01.01.2014 19:06 7,3 C 5,0 C 90 % 1003,3 hPa 0,0 l/m 0 min 2 min 0,0 UV-I 0 W/m 20,6 km/h (4 Bft)
01.01.2014 19:08 7,2 C 5,0 C 90 % 1003,3 hPa 0,0 l/m 0 min 2 min 0,0 UV-I 0 W/m 30,9 km/h (5 Bft)
01.01.2014 19:10 7,2 C 5,0 C 90 % 1003,3 hPa 0,0 l/m 0 min 2 min 0,0 UV-I 0 W/m 20,6 km/h (4 Bft)
01.01.2014 19:12 7,1 C 5,0 C 90 % 1003,2 hPa 0,2 l/m 0 min 2 min 0,0 UV-I 0 W/m 18,0 km/h (3 Bft)
01.01.2014 19:14 7,1 C 5,0 C 91 % 1003,1 hPa 0,0 l/m 0 min 2 min 0,0 UV-I 0 W/m 25,7 km/h (4 Bft)
01.01.2014 19:16 7,1 C 5,0 C 91 % 1003,1 hPa 0,0 l/m 0 min 2 min 0,0 UV-I 0 W/m 23,2 km/h (4 Bft)
01.01.2014 19:18 7,0 C 5,0 C 91 % 1003,1 hPa 0,0 l/m 0 min 2 min 0,0 UV-I 0 W/m 18,0 km/h (3 Bft)
01.01.2014 19:20 7,0 C 5,0 C 91 % 1003,1 hPa 0,0 l/m 0 min 2 min 0,0 UV-I 0 W/m 38,6 km/h (5 Bft)
01.01.2014 19:22 6,9 C 5,0 C 91 % 1003,1 hPa 0,0 l/m 0 min 2 min 0,0 UV-I 0 W/m 25,7 km/h (4 Bft)
01.01.2014 19:24 6,9 C 5,0 C 91 % 1003,0 hPa 0,0 l/m 0 min 2 min 0,0 UV-I 0 W/m 23,2 km/h (4 Bft)
01.01.2014 19:26 6,9 C 5,0 C 92 % 1002,9 hPa 0,0 l/m 0 min 2 min 0,0 UV-I 0 W/m 23,2 km/h (4 Bft)
01.01.2014 19:28 6,9 C 5,0 C 92 % 1003,0 hPa 0,0 l/m 0 min 2 min 0,0 UV-I 0 W/m 38,6 km/h (5 Bft)
01.01.2014 19:30 6,9 C 5,0 C 92 % 1002,8 hPa 0,0 l/m 0 min 2 min 0,0 UV-I 0 W/m 28,3 km/h (4 Bft)
01.01.2014 19:32 6,9 C 5,0 C 92 % 1002,9 hPa 0,0 l/m 0 min 2 min 0,0 UV-I 0 W/m 33,5 km/h (5 Bft)
01.01.2014 19:34 6,9 C 5,0 C 92 % 1002,9 hPa 0,0 l/m 0 min 2 min 0,0 UV-I 0 W/m 36,0 km/h (5 Bft)
01.01.2014 19:36 6,9 C 5,0 C 92 % 1002,9 hPa 0,0 l/m 0 min 2 min 0,0 UV-I 0 W/m 30,9 km/h (5 Bft)
01.01.2014 19:38 6,8 C 5,0 C 92 % 1002,8 hPa 0,2 l/m 0 min 2 min 0,0 UV-I 0 W/m 25,7 km/h (4 Bft)
01.01.2014 19:40 6,9 C 5,0 C 92 % 1002,7 hPa 0,0 l/m 0 min 2 min 0,0 UV-I 0 W/m 25,7 km/h (4 Bft)
01.01.2014 19:42 6,8 C 5,0 C 92 % 1002,7 hPa 0,0 l/m 0 min 2 min 0,0 UV-I 0 W/m 20,6 km/h (4 Bft)
01.01.2014 19:44 6,8 C 5,0 C 92 % 1002,7 hPa 0,0 l/m 0 min 2 min 0,0 UV-I 0 W/m 28,3 km/h (4 Bft)
01.01.2014 19:46 6,8 C 5,0 C 92 % 1002,6 hPa 0,0 l/m 0 min 2 min 0,0 UV-I 0 W/m 28,3 km/h (4 Bft)
01.01.2014 19:48 6,8 C 5,0 C 92 % 1002,7 hPa 0,0 l/m 0 min 2 min 0,0 UV-I 0 W/m 25,7 km/h (4 Bft)
01.01.2014 19:50 6,8 C 5,0 C 92 % 1002,6 hPa 0,0 l/m 0 min 2 min 0,0 UV-I 0 W/m 30,9 km/h (5 Bft)
01.01.2014 19:52 6,8 C 5,0 C 92 % 1002,6 hPa 0,0 l/m 0 min 2 min 0,0 UV-I 0 W/m 28,3 km/h (4 Bft)
01.01.2014 19:54 6,8 C 5,0 C 92 % 1002,6 hPa 0,0 l/m 0 min 2 min 0,0 UV-I 0 W/m 28,3 km/h (4 Bft)
01.01.2014 19:56 6,8 C 5,0 C 92 % 1002,5 hPa 0,0 l/m 0 min 2 min 0,0 UV-I 0 W/m 20,6 km/h (4 Bft)
01.01.2014 19:58 6,8 C 5,0 C 92 % 1002,5 hPa 0,0 l/m 0 min 2 min 0,0 UV-I 0 W/m 23,2 km/h (4 Bft)
01.01.2014 20:00 6,9 C 5,0 C 92 % 1002,5 hPa 0,0 l/m 0 min 2 min 0,0 UV-I 0 W/m 25,7 km/h (4 Bft)
01.01.2014 20:02 6,9 C 5,0 C 92 % 1002,5 hPa 0,0 l/m 0 min 0 min 0,0 UV-I 0 W/m 23,2 km/h (4 Bft)
01.01.2014 20:04 6,9 C 5,0 C 92 % 1002,5 hPa 0,0 l/m 0 min 0 min 0,0 UV-I 0 W/m 30,9 km/h (5 Bft)
01.01.2014 20:06 6,9 C 5,0 C 92 % 1002,4 hPa 0,0 l/m 0 min 2 min 0,0 UV-I 0 W/m 36,0 km/h (5 Bft)
01.01.2014 20:08 6,9 C 5,0 C 92 % 1002,4 hPa 0,0 l/m 0 min 2 min 0,0 UV-I 0 W/m 25,7 km/h (4 Bft)
01.01.2014 20:10 6,9 C 5,0 C 92 % 1002,3 hPa 0,0 l/m 0 min 2 min 0,0 UV-I 0 W/m 25,7 km/h (4 Bft)
01.01.2014 20:12 6,9 C 5,0 C 93 % 1002,3 hPa 0,0 l/m 0 min 2 min 0,0 UV-I 0 W/m 25,7 km/h (4 Bft)
01.01.2014 20:14 6,9 C 5,0 C 93 % 1002,3 hPa 0,0 l/m 0 min 2 min 0,0 UV-I 0 W/m 23,2 km/h (4 Bft)
01.01.2014 20:16 6,9 C 5,0 C 93 % 1002,3 hPa 0,0 l/m 0 min 2 min 0,0 UV-I 0 W/m 36,0 km/h (5 Bft)
01.01.2014 20:18 6,9 C 5,0 C 92 % 1002,2 hPa 0,0 l/m 0 min 2 min 0,0 UV-I 0 W/m 28,3 km/h (4 Bft)
01.01.2014 20:20 7,0 C 5,0 C 92 % 1002,2 hPa 0,0 l/m 0 min 2 min 0,0 UV-I 0 W/m 30,9 km/h (5 Bft)
01.01.2014 20:22 7,0 C 5,0 C 92 % 1002,1 hPa 0,0 l/m 0 min 2 min 0,0 UV-I 0 W/m 36,0 km/h (5 Bft)
01.01.2014 20:24 7,0 C 5,0 C 92 % 1002,1 hPa 0,0 l/m 0 min 2 min 0,0 UV-I 0 W/m 30,9 km/h (5 Bft)
01.01.2014 20:26 7,0 C 5,0 C 92 % 1002,0 hPa 0,0 l/m 0 min 2 min 0,0 UV-I 0 W/m 23,2 km/h (4 Bft)
01.01.2014 20:28 7,1 C 5,0 C 92 % 1002,0 hPa 0,0 l/m 0 min 0 min 0,0 UV-I 0 W/m 23,2 km/h (4 Bft)
01.01.2014 20:30 7,1 C 5,0 C 92 % 1002,0 hPa 0,0 l/m 0 min 2 min 0,0 UV-I 0 W/m 25,7 km/h (4 Bft)
01.01.2014 20:32 7,1 C 5,0 C 92 % 1002,0 hPa 0,0 l/m 0 min 2 min 0,0 UV-I 0 W/m 25,7 km/h (4 Bft)
01.01.2014 20:34 7,1 C 5,0 C 92 % 1001,9 hPa 0,0 l/m 0 min 2 min 0,0 UV-I 0 W/m 28,3 km/h (4 Bft)
01.01.2014 20:36 7,2 C 5,0 C 92 % 1001,9 hPa 0,0 l/m 0 min 0 min 0,0 UV-I 0 W/m 23,2 km/h (4 Bft)
01.01.2014 20:38 7,2 C 5,0 C 91 % 1001,7 hPa 0,0 l/m 0 min 0 min 0,0 UV-I 0 W/m 28,3 km/h (4 Bft)
01.01.2014 20:40 7,3 C 5,0 C 91 % 1001,7 hPa 0,0 l/m 0 min 0 min 0,0 UV-I 0 W/m 33,5 km/h (5 Bft)
01.01.2014 20:42 7,3 C 5,0 C 91 % 1001,7 hPa 0,0 l/m 0 min 0 min 0,0 UV-I 0 W/m 38,6 km/h (5 Bft)
01.01.2014 20:44 7,3 C 5,6 C 91 % 1001,8 hPa 0,0 l/m 0 min 0 min 0,0 UV-I 0 W/m 25,7 km/h (4 Bft)
01.01.2014 20:46 7,4 C 5,6 C 91 % 1001,8 hPa 0,0 l/m 0 min 0 min 0,0 UV-I 0 W/m 20,6 km/h (4 Bft)
01.01.2014 20:48 7,4 C 5,6 C 90 % 1001,7 hPa 0,0 l/m 0 min 0 min 0,0 UV-I 0 W/m 33,5 km/h (5 Bft)
01.01.2014 20:50 7,4 C 5,6 C 90 % 1001,8 hPa 0,0 l/m 0 min 0 min 0,0 UV-I 0 W/m 38,6 km/h (5 Bft)
01.01.2014 20:52 7,5 C 5,6 C 90 % 1001,7 hPa 0,0 l/m 0 min 0 min 0,0 UV-I 0 W/m 41,2 km/h (6 Bft)
01.01.2014 20:54 7,5 C 5,6 C 90 % 1001,7 hPa 0,0 l/m 0 min 2 min 0,0 UV-I 0 W/m 28,3 km/h (4 Bft)
01.01.2014 20:56 7,6 C 5,6 C 90 % 1001,7 hPa 0,0 l/m 0 min 2 min 0,0 UV-I 0 W/m 20,6 km/h (4 Bft)
01.01.2014 20:58 7,6 C 5,6 C 90 % 1001,6 hPa 0,0 l/m 0 min 0 min 0,0 UV-I 0 W/m 25,7 km/h (4 Bft)
01.01.2014 21:00 7,6 C 5,6 C 90 % 1001,6 hPa 0,0 l/m 0 min 0 min 0,0 UV-I 0 W/m 33,5 km/h (5 Bft)
01.01.2014 21:02 7,6 C 5,6 C 89 % 1001,5 hPa 0,0 l/m 0 min 2 min 0,0 UV-I 0 W/m 28,3 km/h (4 Bft)
01.01.2014 21:04 7,6 C 5,6 C 89 % 1001,5 hPa 0,0 l/m 0 min 2 min 0,0 UV-I 0 W/m 28,3 km/h (4 Bft)
01.01.2014 21:06 7,7 C 5,6 C 89 % 1001,7 hPa 0,0 l/m 0 min 0 min 0,0 UV-I 0 W/m 20,6 km/h (4 Bft)
01.01.2014 21:08 7,6 C 5,6 C 89 % 1001,5 hPa 0,0 l/m 0 min 0 min 0,0 UV-I 0 W/m 23,2 km/h (4 Bft)
01.01.2014 21:10 7,7 C 5,6 C 89 % 1001,4 hPa 0,0 l/m 0 min 0 min 0,0 UV-I 0 W/m 25,7 km/h (4 Bft)
01.01.2014 21:12 7,7 C 5,6 C 89 % 1001,3 hPa 0,0 l/m 0 min 0 min 0,0 UV-I 0 W/m 30,9 km/h (5 Bft)
01.01.2014 21:14 7,7 C 5,6 C 89 % 1001,4 hPa 0,0 l/m 0 min 0 min 0,0 UV-I 0 W/m 28,3 km/h (4 Bft)
01.01.2014 21:16 7,7 C 5,6 C 89 % 1001,3 hPa 0,0 l/m 0 min 0 min 0,0 UV-I 0 W/m 20,6 km/h (4 Bft)
01.01.2014 21:18 7,7 C 5,6 C 89 % 1001,4 hPa 0,0 l/m 0 min 0 min 0,0 UV-I 0 W/m 28,3 km/h (4 Bft)
01.01.2014 21:20 7,7 C 5,6 C 89 % 1001,3 hPa 0,0 l/m 0 min 0 min 0,0 UV-I 0 W/m 25,7 km/h (4 Bft)
01.01.2014 21:22 7,7 C 5,6 C 89 % 1001,2 hPa 0,0 l/m 0 min 0 min 0,0 UV-I 0 W/m 33,5 km/h (5 Bft)
01.01.2014 21:24 7,7 C 5,6 C 89 % 1001,1 hPa 0,0 l/m 0 min 0 min 0,0 UV-I 0 W/m 36,0 km/h (5 Bft)
01.01.2014 21:26 7,7 C 5,6 C 89 % 1001,0 hPa 0,0 l/m 0 min 0 min 0,0 UV-I 0 W/m 28,3 km/h (4 Bft)
01.01.2014 21:28 7,7 C 5,6 C 89 % 1001,0 hPa 0,0 l/m 0 min 0 min 0,0 UV-I 0 W/m 30,9 km/h (5 Bft)
01.01.2014 21:30 7,7 C 5,6 C 89 % 1001,0 hPa 0,0 l/m 0 min 0 min 0,0 UV-I 0 W/m 30,9 km/h (5 Bft)
01.01.2014 21:32 7,7 C 5,6 C 89 % 1000,9 hPa 0,0 l/m 0 min 0 min 0,0 UV-I 0 W/m 30,9 km/h (5 Bft)
01.01.2014 21:34 7,7 C 5,6 C 88 % 1000,9 hPa 0,0 l/m 0 min 0 min 0,0 UV-I 0 W/m 25,7 km/h (4 Bft)
01.01.2014 21:36 7,7 C 5,6 C 88 % 1000,9 hPa 0,0 l/m 0 min 0 min 0,0 UV-I 0 W/m 28,3 km/h (4 Bft)
01.01.2014 21:38 7,7 C 5,6 C 88 % 1000,8 hPa 0,0 l/m 0 min 0 min 0,0 UV-I 0 W/m 23,2 km/h (4 Bft)
01.01.2014 21:40 7,7 C 5,6 C 88 % 1000,8 hPa 0,0 l/m 0 min 0 min 0,0 UV-I 0 W/m 28,3 km/h (4 Bft)
01.01.2014 21:42 7,7 C 5,6 C 88 % 1000,8 hPa 0,0 l/m 0 min 2 min 0,0 UV-I 0 W/m 20,6 km/h (4 Bft)
01.01.2014 21:44 7,7 C 5,6 C 88 % 1000,8 hPa 0,0 l/m 0 min 0 min 0,0 UV-I 0 W/m 20,6 km/h (4 Bft)
01.01.2014 21:46 7,8 C 5,6 C 88 % 1000,8 hPa 0,0 l/m 0 min 0 min 0,0 UV-I 0 W/m 23,2 km/h (4 Bft)
01.01.2014 21:48 7,8 C 5,6 C 88 % 1000,7 hPa 0,0 l/m 0 min 0 min 0,0 UV-I 0 W/m 20,6 km/h (4 Bft)
01.01.2014 21:50 7,8 C 5,6 C 88 % 1000,7 hPa 0,0 l/m 0 min 0 min 0,0 UV-I 0 W/m 25,7 km/h (4 Bft)
01.01.2014 21:52 7,8 C 6,1 C 88 % 1000,7 hPa 0,0 l/m 0 min 0 min 0,0 UV-I 0 W/m 23,2 km/h (4 Bft)
01.01.2014 21:54 7,8 C 6,1 C 88 % 1000,7 hPa 0,0 l/m 0 min 0 min 0,0 UV-I 0 W/m 18,0 km/h (3 Bft)
01.01.2014 21:56 7,8 C 6,1 C 88 % 1000,6 hPa 0,0 l/m 0 min 0 min 0,0 UV-I 0 W/m 20,6 km/h (4 Bft)
01.01.2014 21:58 7,8 C 6,1 C 88 % 1000,6 hPa 0,0 l/m 0 min 0 min 0,0 UV-I 0 W/m 30,9 km/h (5 Bft)
01.01.2014 22:00 7,8 C 6,1 C 88 % 1000,6 hPa 0,0 l/m 0 min 0 min 0,0 UV-I 0 W/m 25,7 km/h (4 Bft)
01.01.2014 22:02 7,8 C 6,1 C 88 % 1000,5 hPa 0,0 l/m 0 min 0 min 0,0 UV-I 0 W/m 28,3 km/h (4 Bft)
01.01.2014 22:04 7,9 C 6,1 C 88 % 1000,5 hPa 0,0 l/m 0 min 0 min 0,0 UV-I 0 W/m 18,0 km/h (3 Bft)
01.01.2014 22:06 7,9 C 6,1 C 88 % 1000,5 hPa 0,0 l/m 0 min 0 min 0,0 UV-I 0 W/m 28,3 km/h (4 Bft)
01.01.2014 22:08 7,9 C 6,1 C 88 % 1000,5 hPa 0,0 l/m 0 min 2 min 0,0 UV-I 0 W/m 18,0 km/h (3 Bft)
01.01.2014 22:10 7,9 C 6,1 C 88 % 1000,4 hPa 0,0 l/m 0 min 2 min 0,0 UV-I 0 W/m 33,5 km/h (5 Bft)
01.01.2014 22:12 7,9 C 6,1 C 88 % 1000,4 hPa 0,0 l/m 0 min 0 min 0,0 UV-I 0 W/m 20,6 km/h (4 Bft)
01.01.2014 22:14 7,9 C 6,1 C 88 % 1000,4 hPa 0,0 l/m 0 min 2 min 0,0 UV-I 0 W/m 23,2 km/h (4 Bft)
01.01.2014 22:16 7,9 C 6,1 C 88 % 1000,4 hPa 0,0 l/m 0 min 0 min 0,0 UV-I 0 W/m 28,3 km/h (4 Bft)
01.01.2014 22:18 7,9 C 6,1 C 88 % 1000,4 hPa 0,0 l/m 0 min 0 min 0,0 UV-I 0 W/m 18,0 km/h (3 Bft)
01.01.2014 22:20 7,9 C 6,1 C 88 % 1000,3 hPa 0,0 l/m 0 min 0 min 0,0 UV-I 0 W/m 20,6 km/h (4 Bft)
01.01.2014 22:22 7,9 C 6,1 C 88 % 1000,3 hPa 0,0 l/m 0 min 0 min 0,0 UV-I 0 W/m 18,0 km/h (3 Bft)
01.01.2014 22:24 7,9 C 6,1 C 88 % 1000,2 hPa 0,0 l/m 0 min 0 min 0,0 UV-I 0 W/m 20,6 km/h (4 Bft)
01.01.2014 22:26 7,9 C 6,1 C 88 % 1000,1 hPa 0,0 l/m 0 min 0 min 0,0 UV-I 0 W/m 20,6 km/h (4 Bft)
01.01.2014 22:28 8,0 C 6,1 C 88 % 1000,1 hPa 0,0 l/m 0 min 0 min 0,0 UV-I 0 W/m 15,4 km/h (3 Bft)
01.01.2014 22:30 8,0 C 6,1 C 88 % 1000,1 hPa 0,0 l/m 0 min 0 min 0,0 UV-I 0 W/m 23,2 km/h (4 Bft)
01.01.2014 22:32 8,0 C 6,1 C 88 % 1000,0 hPa 0,0 l/m 0 min 0 min 0,0 UV-I 0 W/m 25,7 km/h (4 Bft)
01.01.2014 22:34 8,0 C 6,1 C 88 % 1000,0 hPa 0,0 l/m 0 min 2 min 0,0 UV-I 0 W/m 28,3 km/h (4 Bft)
01.01.2014 22:36 8,0 C 6,1 C 88 % 1000,0 hPa 0,0 l/m 0 min 0 min 0,0 UV-I 0 W/m 23,2 km/h (4 Bft)
01.01.2014 22:38 8,0 C 6,1 C 88 % 1000,0 hPa 0,0 l/m 0 min 0 min 0,0 UV-I 0 W/m 25,7 km/h (4 Bft)
01.01.2014 22:40 8,1 C 6,1 C 88 % 999,9 hPa 0,0 l/m 0 min 2 min 0,0 UV-I 0 W/m 20,6 km/h (4 Bft)
01.01.2014 22:42 8,1 C 6,1 C 88 % 999,9 hPa 0,0 l/m 0 min 2 min 0,0 UV-I 0 W/m 20,6 km/h (4 Bft)
01.01.2014 22:44 8,1 C 6,1 C 88 % 999,8 hPa 0,0 l/m 0 min 0 min 0,0 UV-I 0 W/m 23,2 km/h (4 Bft)
01.01.2014 22:46 8,1 C 6,1 C 88 % 999,7 hPa 0,0 l/m 0 min 2 min 0,0 UV-I 0 W/m 23,2 km/h (4 Bft)
01.01.2014 22:48 8,1 C 6,1 C 88 % 999,7 hPa 0,0 l/m 0 min 2 min 0,0 UV-I 0 W/m 20,6 km/h (4 Bft)
01.01.2014 22:50 8,1 C 6,1 C 88 % 999,6 hPa 0,0 l/m 0 min 2 min 0,0 UV-I 0 W/m 30,9 km/h (5 Bft)
01.01.2014 22:52 8,1 C 6,1 C 88 % 999,5 hPa 0,0 l/m 0 min 2 min 0,0 UV-I 0 W/m 18,0 km/h (3 Bft)
01.01.2014 22:54 8,1 C 6,1 C 88 % 999,4 hPa 0,0 l/m 0 min 2 min 0,0 UV-I 0 W/m 23,2 km/h (4 Bft)
01.01.2014 22:56 8,1 C 6,1 C 88 % 999,5 hPa 0,0 l/m 0 min 0 min 0,0 UV-I 0 W/m 25,7 km/h (4 Bft)
01.01.2014 22:58 8,1 C 6,1 C 88 % 999,4 hPa 0,0 l/m 0 min 0 min 0,0 UV-I 0 W/m 18,0 km/h (3 Bft)
01.01.2014 23:00 8,1 C 6,1 C 88 % 999,4 hPa 0,0 l/m 0 min 0 min 0,0 UV-I 0 W/m 25,7 km/h (4 Bft)
01.01.2014 23:02 8,1 C 6,1 C 88 % 999,4 hPa 0,0 l/m 0 min 0 min 0,0 UV-I 0 W/m 18,0 km/h (3 Bft)
01.01.2014 23:04 8,2 C 6,1 C 88 % 999,4 hPa 0,0 l/m 0 min 2 min 0,0 UV-I 0 W/m 18,0 km/h (3 Bft)
01.01.2014 23:06 8,2 C 6,1 C 88 % 999,4 hPa 0,0 l/m 0 min 2 min 0,0 UV-I 0 W/m 20,6 km/h (4 Bft)
01.01.2014 23:08 8,2 C 6,1 C 88 % 999,4 hPa 0,0 l/m 0 min 2 min 0,0 UV-I 0 W/m 12,9 km/h (3 Bft)
01.01.2014 23:10 8,2 C 6,1 C 88 % 999,4 hPa 0,0 l/m 0 min 2 min 0,0 UV-I 0 W/m 18,0 km/h (3 Bft)
01.01.2014 23:12 8,2 C 6,1 C 88 % 999,4 hPa 0,0 l/m 0 min 2 min 0,0 UV-I 0 W/m 20,6 km/h (4 Bft)
01.01.2014 23:14 8,2 C 6,1 C 88 % 999,3 hPa 0,0 l/m 0 min 2 min 0,0 UV-I 0 W/m 18,0 km/h (3 Bft)
01.01.2014 23:16 8,2 C 6,1 C 88 % 999,3 hPa 0,0 l/m 0 min 0 min 0,0 UV-I 0 W/m 20,6 km/h (4 Bft)
01.01.2014 23:18 8,2 C 6,1 C 88 % 999,3 hPa 0,0 l/m 0 min 2 min 0,0 UV-I 0 W/m 20,6 km/h (4 Bft)
01.01.2014 23:20 8,2 C 6,1 C 88 % 999,3 hPa 0,0 l/m 0 min 0 min 0,0 UV-I 0 W/m 18,0 km/h (3 Bft)
01.01.2014 23:22 8,2 C 6,1 C 88 % 999,3 hPa 0,0 l/m 0 min 0 min 0,0 UV-I 0 W/m 15,4 km/h (3 Bft)
01.01.2014 23:24 8,2 C 6,1 C 88 % 999,2 hPa 0,0 l/m 0 min 0 min 0,0 UV-I 0 W/m 28,3 km/h (4 Bft)
01.01.2014 23:26 8,3 C 6,1 C 88 % 999,3 hPa 0,0 l/m 0 min 2 min 0,0 UV-I 0 W/m 20,6 km/h (4 Bft)
01.01.2014 23:28 8,3 C 6,1 C 88 % 999,2 hPa 0,0 l/m 0 min 0 min 0,0 UV-I 0 W/m 30,9 km/h (5 Bft)
01.01.2014 23:30 8,4 C 6,1 C 88 % 999,2 hPa 0,0 l/m 0 min 0 min 0,0 UV-I 0 W/m 20,6 km/h (4 Bft)
01.01.2014 23:32 8,4 C 6,7 C 88 % 999,2 hPa 0,0 l/m 0 min 0 min 0,0 UV-I 0 W/m 23,2 km/h (4 Bft)
01.01.2014 23:34 8,5 C 6,7 C 88 % 999,1 hPa 0,0 l/m 0 min 0 min 0,0 UV-I 0 W/m 30,9 km/h (5 Bft)
01.01.2014 23:36 8,6 C 6,7 C 88 % 999,1 hPa 0,0 l/m 0 min 0 min 0,0 UV-I 0 W/m 25,7 km/h (4 Bft)
01.01.2014 23:38 8,7 C 6,7 C 87 % 999,0 hPa 0,0 l/m 0 min 0 min 0,0 UV-I 0 W/m 20,6 km/h (4 Bft)
01.01.2014 23:40 8,7 C 6,7 C 87 % 999,0 hPa 0,0 l/m 0 min 0 min 0,0 UV-I 0 W/m 23,2 km/h (4 Bft)
01.01.2014 23:42 8,9 C 6,7 C 87 % 999,0 hPa 0,0 l/m 0 min 0 min 0,0 UV-I 0 W/m 28,3 km/h (4 Bft)
01.01.2014 23:44 8,9 C 7,2 C 86 % 998,8 hPa 0,0 l/m 0 min 0 min 0,0 UV-I 0 W/m 23,2 km/h (4 Bft)
01.01.2014 23:46 9,1 C 7,2 C 86 % 998,9 hPa 0,0 l/m 0 min 0 min 0,0 UV-I 0 W/m 23,2 km/h (4 Bft)
01.01.2014 23:48 9,1 C 7,2 C 86 % 998,8 hPa 0,0 l/m 0 min 0 min 0,0 UV-I 0 W/m 30,9 km/h (5 Bft)
01.01.2014 23:50 9,2 C 7,2 C 85 % 998,8 hPa 0,0 l/m 0 min 0 min 0,0 UV-I 0 W/m 23,2 km/h (4 Bft)
01.01.2014 23:52 9,2 C 7,2 C 85 % 998,9 hPa 0,0 l/m 0 min 0 min 0,0 UV-I 0 W/m 30,9 km/h (5 Bft)
01.01.2014 23:54 9,2 C 7,2 C 85 % 998,9 hPa 0,0 l/m 0 min 0 min 0,0 UV-I 0 W/m 20,6 km/h (4 Bft)
01.01.2014 23:56 9,3 C 7,2 C 85 % 998,8 hPa 0,0 l/m 0 min 0 min 0,0 UV-I 0 W/m 33,5 km/h (5 Bft)
01.01.2014 23:58 9,3 C 7,2 C 84 % 998,7 hPa 0,0 l/m 0 min 0 min 0,0 UV-I 0 W/m 25,7 km/h (4 Bft)
_ Min-Zeit 09:20 08:12 13:54 23:58 - - - - - 00:02
Minimum _ 4,3 C 2,2 C 72 % 998,7 hPa - - - - - 0,0 km/h (0 Bft)
_ Max-Zeit 12:10 12:58 20:12 10:00 00:50 10:18 00:40 00:00 13:00 18:14
Maximum _ 10,1 C 7,2 C 93 % 1010,2 hPa 0,2 l/m 2 min 2 min 0,0 UV-I 243 W/m 46,3 km/h
S (6 Bft)
Durchschnitt _ 7,0 C 5,0 C 85 % 1006,8 hPa #1,0 l/m #3:46 h #4:40 h 0,0 UV-I 106 W/m 16,4 km/h (3 Bft)
© 2014 W. Hausmann